GFSCGP_prec_precacc24_111.txt.gz
Total_Precipitation_Accumulation
0.00 0.00 0.00 0.00 0.00 0.00 0.00 0.00 0.00 0.00 0.00 0.00 0.00 0.00 0.00 0.00 0.00 0.00 0.00 0.00 0.00 0.00 0.00 0.00 0.00 0.00 0.00 0.00 0.00 0.00 0.01 0.02 0.05 0.06 0.07 0.07 0.01 0.02 0.05 0.04 0.09 0.03 0.18 0.13
0.01 0.01 0.00 0.00 0.00 0.00 0.00 0.00 0.00 0.00 0.00 0.00 0.00 0.00 0.00 0.00 0.00 0.00 0.00 0.00 0.00 0.00 0.00 0.00 0.00 0.00 0.00 0.00 0.00 0.00 0.00 0.00 0.01 0.02 0.05 0.06 0.11 0.12 0.22 0.20 0.20 0.13 0.07 0.18
0.02 0.01 0.00 0.01 0.03 0.02 0.01 0.00 0.00 0.00 0.00 0.00 0.01 0.00 0.00 0.00 0.00 0.00 0.00 0.00 0.00 0.00 0.00 0.00 0.00 0.00 0.00 0.00 0.00 0.00 0.00 0.00 0.01 0.01 0.03 0.07 0.16 0.21 0.36 0.31 0.25 0.23 0.24 0.21
0.06 0.02 0.02 0.02 0.02 0.01 0.04 0.00 0.01 0.01 0.02 0.04 0.01 0.07 0.00 0.00 0.00 0.00 0.00 0.00 0.00 0.01 0.01 0.00 0.00 0.00 0.00 0.00 0.00 0.00 0.00 0.00 0.01 0.02 0.02 0.02 0.01 0.00 0.01 0.04 0.17 0.26 0.52 0.70
0.04 0.01 0.03 0.05 0.02 0.02 0.03 0.01 0.02 0.02 0.02 0.04 0.01 0.06 0.02 0.00 0.00 0.00 0.01 0.00 0.01 0.01 0.00 0.00 0.00 0.00 0.00 0.00 0.00 0.00 0.00 0.00 0.01 0.03 0.02 0.04 0.03 0.04 0.06 0.04 0.05 0.09 0.22 0.28
0.03 0.05 0.03 0.02 0.01 0.03 0.04 0.04 0.01 0.01 0.06 0.18 0.02 0.02 0.04 0.01 0.05 0.04 0.04 0.04 0.04 0.02 0.01 0.00 0.00 0.00 0.00 0.08 0.04 0.00 0.00 0.01 0.05 0.04 0.04 0.05 0.03 0.05 0.05 0.02 0.03 0.06 0.10 0.16
0.04 0.07 0.02 0.00 0.01 0.01 0.06 0.14 0.18 0.15 0.13 0.08 0.00 0.06 0.05 0.04 0.14 0.15 0.17 0.18 0.07 0.05 0.02 0.01 0.01 0.01 0.00 0.03 0.17 0.13 0.12 0.03 0.03 0.03 0.05 0.06 0.08 0.06 0.06 0.04 0.06 0.13 0.25 0.31
0.07 0.04 0.00 0.00 0.00 0.02 0.02 0.05 0.09 0.12 0.09 0.05 0.04 0.14 0.07 0.16 0.24 0.44 0.32 0.39 0.24 0.15 0.03 0.02 0.03 0.03 0.02 0.01 0.09 0.22 0.31 0.24 0.19 0.19 0.20 0.21 0.20 0.19 0.17 0.15 0.19 0.15 0.10 0.12
0.03 0.02 0.00 0.00 0.00 0.02 0.09 0.07 0.01 0.10 0.11 0.13 0.05 0.04 0.08 0.40 0.55 0.40 0.33 0.35 0.22 0.13 0.08 0.04 0.05 0.08 0.06 0.04 0.20 0.25 0.21 0.15 0.26 0.38 0.33 0.31 0.31 0.36 0.37 0.33 0.43 0.37 0.24 0.19
0.02 0.04 0.01 0.00 0.00 0.00 0.01 0.03 0.14 0.18 0.11 0.07 0.02 0.17 0.39 0.27 0.56 0.34 0.28 0.23 0.11 0.05 0.02 0.02 0.03 0.10 0.11 0.14 0.25 0.46 0.59 0.52 0.50 0.54 0.52 0.48 0.43 0.43 0.47 0.44 0.49 0.43 0.37 0.31
0.02 0.02 0.01 0.00 0.00 0.01 0.01 0.04 0.13 0.24 0.14 0.12 0.06 0.31 0.57 0.82 0.69 0.28 0.17 0.11 0.06 0.01 0.01 0.00 0.01 0.05 0.13 0.19 0.37 0.52 0.78 1.05 1.00 0.85 0.84 0.70 0.49 0.49 0.43 0.45 0.47 0.53 0.46 0.46
0.02 0.02 0.01 0.00 0.00 0.00 0.01 0.03 0.15 0.35 0.37 0.35 0.21 0.25 0.31 0.45 0.34 0.08 0.01 0.01 0.02 0.01 0.00 0.00 0.00 0.02 0.10 0.21 0.34 0.50 0.79 1.37 1.20 0.80 0.77 0.63 0.58 0.63 0.47 0.46 0.51 0.43 0.37 0.47
0.02 0.05 0.02 0.02 0.00 0.00 0.00 0.00 0.06 0.10 0.10 0.09 0.14 0.15 0.21 0.08 0.04 0.01 0.01 0.02 0.01 0.00 0.00 0.00 0.00 0.00 0.02 0.11 0.24 0.35 0.62 0.94 0.95 1.04 0.83 0.67 0.53 0.60 0.52 0.47 0.44 0.42 0.29 0.30
0.00 0.00 0.01 0.02 0.01 0.00 0.00 0.00 0.02 0.12 0.19 0.12 0.13 0.12 0.14 0.08 0.05 0.14 0.10 0.04 0.02 0.00 0.00 0.00 0.00 0.00 0.00 0.02 0.09 0.18 0.62 0.70 0.70 1.09 1.08 0.97 0.92 0.82 0.60 0.52 0.50 0.42 0.37 0.17
0.00 0.00 0.00 0.00 0.00 0.00 0.00 0.00 0.00 0.01 0.03 0.13 0.08 0.17 0.25 0.24 0.15 0.17 0.15 0.05 0.02 0.00 0.00 0.00 0.00 0.00 0.00 0.00 0.01 0.03 0.14 0.59 0.74 1.03 1.48 1.43 1.18 1.14 1.27 1.36 1.23 0.70 0.56 0.38
0.00 0.00 0.00 0.00 0.00 0.00 0.00 0.00 0.00 0.00 0.01 0.02 0.01 0.12 0.39 0.26 0.19 0.16 0.12 0.08 0.04 0.02 0.01 0.00 0.00 0.00 0.00 0.01 0.02 0.03 0.06 0.11 0.38 0.56 0.93 1.36 1.77 1.07 1.11 1.39 1.56 1.15 0.75 0.78
0.00 0.00 0.00 0.00 0.00 0.01 0.01 0.04 0.04 0.02 0.04 0.04 0.04 0.06 0.16 0.22 0.17 0.11 0.09 0.07 0.07 0.04 0.02 0.02 0.02 0.02 0.03 0.05 0.07 0.08 0.12 0.12 0.20 0.38 0.84 0.99 1.26 1.67 1.25 1.35 1.48 1.72 1.35 0.98
0.00 0.00 0.00 0.00 0.00 0.01 0.04 0.16 0.24 0.18 0.24 0.27 0.27 0.20 0.09 0.07 0.13 0.12 0.11 0.12 0.11 0.08 0.07 0.05 0.04 0.05 0.07 0.09 0.11 0.10 0.13 0.12 0.20 0.35 0.52 0.72 0.66 1.15 1.49 1.15 1.08 1.12 1.25 1.28
0.00 0.00 0.03 0.01 0.02 0.02 0.06 0.20 0.47 0.53 0.40 0.38 0.31 0.21 0.16 0.15 0.11 0.13 0.12 0.13 0.15 0.18 0.18 0.13 0.10 0.11 0.14 0.16 0.16 0.14 0.12 0.13 0.14 0.31 0.56 0.78 0.91 0.95 1.02 1.26 1.09 1.08 0.91 0.89
0.01 0.01 0.06 0.08 0.11 0.04 0.07 0.04 0.16 0.56 0.51 0.28 0.28 0.24 0.22 0.29 0.34 0.23 0.15 0.16 0.20 0.21 0.16 0.14 0.17 0.19 0.20 0.23 0.21 0.17 0.15 0.13 0.16 0.23 0.39 0.56 0.70 0.94 1.18 1.38 1.48 1.42 1.34 1.14
0.02 0.05 0.06 0.03 0.07 0.07 0.10 0.15 0.33 0.58 0.46 0.22 0.33 0.34 0.35 0.41 0.35 0.25 0.18 0.19 0.20 0.16 0.18 0.18 0.19 0.24 0.23 0.14 0.10 0.16 0.20 0.22 0.27 0.24 0.19 0.23 0.35 0.55 0.75 0.95 1.23 1.52 1.73 1.69
0.23 0.14 0.15 0.18 0.26 0.21 0.07 0.21 0.43 0.52 0.35 0.27 0.36 0.36 0.36 0.31 0.22 0.16 0.14 0.16 0.16 0.18 0.17 0.15 0.15 0.14 0.09 0.04 0.03 0.05 0.11 0.21 0.22 0.23 0.21 0.20 0.22 0.29 0.43 0.57 0.68 0.82 1.07 1.41
0.40 0.49 0.37 0.29 0.28 0.29 0.19 0.28 0.36 0.33 0.29 0.32 0.31 0.31 0.23 0.22 0.21 0.18 0.18 0.18 0.20 0.19 0.14 0.08 0.04 0.03 0.03 0.03 0.03 0.05 0.10 0.08 0.10 0.13 0.15 0.17 0.17 0.19 0.25 0.30 0.38 0.47 0.56 0.64
0.07 0.17 0.20 0.15 0.17 0.17 0.26 0.21 0.18 0.20 0.22 0.24 0.19 0.16 0.11 0.14 0.16 0.17 0.18 0.17 0.13 0.09 0.04 0.02 0.01 0.01 0.03 0.05 0.06 0.04 0.02 0.02 0.03 0.05 0.08 0.12 0.14 0.15 0.15 0.15 0.20 0.24 0.31 0.38
0.01 0.02 0.07 0.08 0.10 0.10 0.14 0.19 0.16 0.18 0.15 0.14 0.13 0.08 0.06 0.06 0.08 0.06 0.06 0.06 0.04 0.04 0.04 0.02 0.02 0.03 0.04 0.04 0.03 0.06 0.05 0.01 0.01 0.03 0.05 0.07 0.09 0.12 0.13 0.15 0.16 0.17 0.22 0.20
0.01 0.02 0.03 0.03 0.03 0.04 0.12 0.16 0.14 0.14 0.14 0.09 0.04 0.03 0.02 0.01 0.02 0.02 0.03 0.03 0.03 0.03 0.03 0.02 0.03 0.04 0.05 0.03 0.03 0.04 0.03 0.02 0.01 0.01 0.01 0.01 0.01 0.02 0.03 0.04 0.06 0.07 0.09 0.06

GFSCGP_prec_precacc24_114.txt.gz
Total_Precipitation_Accumulation
0.00 0.00 0.00 0.00 0.00 0.00 0.00 0.00 0.00 0.00 0.00 0.00 0.00 0.00 0.00 0.00 0.00 0.00 0.00 0.00 0.00 0.00 0.00 0.00 0.00 0.00 0.00 0.00 0.00 0.00 0.00 0.00 0.00 0.03 0.03 0.04 0.01 0.02 0.04 0.04 0.09 0.03 0.18 0.13
0.01 0.01 0.00 0.00 0.00 0.00 0.00 0.00 0.00 0.00 0.00 0.00 0.00 0.00 0.00 0.00 0.00 0.00 0.00 0.00 0.00 0.00 0.00 0.00 0.00 0.00 0.00 0.00 0.00 0.00 0.00 0.00 0.00 0.00 0.02 0.06 0.09 0.11 0.22 0.20 0.20 0.13 0.07 0.17
0.02 0.01 0.00 0.01 0.03 0.02 0.01 0.00 0.00 0.00 0.00 0.00 0.01 0.00 0.00 0.00 0.00 0.00 0.00 0.00 0.00 0.00 0.00 0.00 0.00 0.00 0.00 0.00 0.00 0.00 0.00 0.00 0.00 0.00 0.01 0.05 0.15 0.20 0.36 0.31 0.25 0.23 0.24 0.21
0.06 0.02 0.02 0.02 0.02 0.01 0.04 0.00 0.01 0.01 0.02 0.04 0.01 0.07 0.00 0.00 0.00 0.00 0.00 0.01 0.04 0.07 0.01 0.00 0.00 0.00 0.00 0.00 0.00 0.00 0.00 0.00 0.00 0.00 0.01 0.02 0.01 0.00 0.01 0.04 0.17 0.26 0.52 0.69
0.04 0.01 0.03 0.05 0.02 0.02 0.03 0.01 0.02 0.02 0.02 0.04 0.01 0.06 0.02 0.00 0.00 0.00 0.00 0.02 0.09 0.12 0.04 0.00 0.00 0.00 0.00 0.00 0.00 0.00 0.00 0.00 0.00 0.00 0.01 0.03 0.03 0.04 0.06 0.04 0.05 0.09 0.22 0.28
0.03 0.05 0.03 0.02 0.01 0.03 0.04 0.04 0.01 0.01 0.06 0.18 0.02 0.02 0.04 0.00 0.01 0.00 0.05 0.05 0.05 0.08 0.03 0.00 0.00 0.00 0.00 0.00 0.00 0.00 0.00 0.00 0.00 0.01 0.03 0.04 0.03 0.05 0.05 0.02 0.03 0.06 0.09 0.15
0.04 0.07 0.02 0.00 0.01 0.01 0.06 0.14 0.18 0.15 0.13 0.08 0.00 0.06 0.05 0.02 0.04 0.08 0.17 0.38 0.18 0.03 0.02 0.01 0.01 0.01 0.00 0.00 0.01 0.02 0.03 0.01 0.01 0.01 0.03 0.06 0.08 0.06 0.06 0.04 0.06 0.13 0.25 0.31
0.07 0.04 0.00 0.00 0.00 0.02 0.02 0.05 0.09 0.12 0.09 0.05 0.04 0.14 0.08 0.14 0.25 0.56 0.46 0.53 0.37 0.13 0.03 0.00 0.02 0.03 0.02 0.01 0.04 0.10 0.09 0.14 0.14 0.16 0.18 0.19 0.20 0.19 0.17 0.15 0.19 0.14 0.10 0.11
0.03 0.02 0.00 0.00 0.00 0.02 0.09 0.07 0.01 0.10 0.11 0.13 0.05 0.03 0.09 0.53 1.07 0.85 0.75 0.58 0.36 0.21 0.09 0.04 0.06 0.08 0.05 0.04 0.07 0.15 0.14 0.10 0.18 0.33 0.29 0.30 0.31 0.36 0.37 0.33 0.43 0.37 0.24 0.20
0.02 0.04 0.01 0.00 0.00 0.00 0.01 0.02 0.13 0.18 0.11 0.07 0.02 0.16 0.49 0.54 1.00 0.83 0.71 0.62 0.45 0.19 0.11 0.05 0.04 0.07 0.07 0.09 0.14 0.25 0.25 0.27 0.29 0.40 0.47 0.46 0.42 0.43 0.47 0.44 0.49 0.43 0.37 0.31
0.02 0.03 0.02 0.01 0.01 0.01 0.00 0.04 0.11 0.23 0.14 0.13 0.07 0.36 0.68 0.94 0.83 0.48 0.43 0.33 0.17 0.02 0.01 0.01 0.01 0.02 0.05 0.08 0.15 0.18 0.34 0.62 0.60 0.55 0.70 0.67 0.48 0.47 0.41 0.44 0.47 0.53 0.46 0.47
0.04 0.05 0.02 0.00 0.00 0.00 0.00 0.01 0.09 0.28 0.34 0.37 0.30 0.39 0.38 0.46 0.37 0.12 0.02 0.02 0.04 0.01 0.00 0.00 0.00 0.00 0.06 0.12 0.12 0.14 0.22 0.51 0.62 0.53 0.64 0.59 0.55 0.56 0.45 0.45 0.50 0.42 0.37 0.47
0.11 0.19 0.12 0.06 0.02 0.00 0.00 0.00 0.02 0.06 0.08 0.07 0.11 0.16 0.23 0.11 0.05 0.02 0.01 0.02 0.01 0.00 0.00 0.00 0.00 0.00 0.01 0.08 0.16 0.18 0.25 0.52 0.51 0.64 0.69 0.63 0.49 0.54 0.51 0.47 0.43 0.40 0.27 0.29
0.04 0.09 0.07 0.06 0.02 0.00 0.00 0.00 0.00 0.01 0.03 0.02 0.02 0.03 0.10 0.07 0.04 0.05 0.06 0.04 0.02 0.00 0.00 0.00 0.00 0.00 0.00 0.02 0.09 0.17 0.52 0.61 0.58 0.79 0.90 0.90 0.87 0.79 0.59 0.52 0.49 0.42 0.36 0.17
0.01 0.01 0.01 0.01 0.00 0.00 0.00 0.00 0.00 0.00 0.00 0.02 0.00 0.02 0.09 0.22 0.14 0.10 0.08 0.05 0.02 0.00 0.00 0.00 0.00 0.00 0.00 0.00 0.01 0.03 0.11 0.48 0.63 0.85 1.26 1.36 1.15 1.11 1.26 1.35 1.23 0.69 0.55 0.38
0.00 0.03 0.02 0.01 0.00 0.00 0.00 0.00 0.00 0.00 0.00 0.00 0.00 0.01 0.03 0.13 0.18 0.15 0.12 0.08 0.04 0.02 0.01 0.00 0.00 0.00 0.00 0.01 0.02 0.02 0.03 0.07 0.29 0.49 0.85 1.28 1.73 1.05 1.10 1.38 1.56 1.14 0.74 0.78
0.00 0.02 0.03 0.03 0.01 0.02 0.01 0.03 0.04 0.02 0.01 0.02 0.02 0.01 0.04 0.12 0.16 0.11 0.09 0.08 0.07 0.04 0.02 0.02 0.02 0.02 0.03 0.04 0.06 0.06 0.10 0.07 0.12 0.27 0.75 0.94 1.21 1.63 1.26 1.35 1.46 1.71 1.34 0.97
0.00 0.00 0.01 0.01 0.01 0.06 0.03 0.10 0.20 0.14 0.09 0.11 0.08 0.10 0.05 0.05 0.12 0.12 0.11 0.12 0.11 0.08 0.07 0.05 0.05 0.06 0.07 0.06 0.07 0.07 0.10 0.09 0.13 0.27 0.42 0.67 0.66 1.14 1.50 1.16 1.07 1.10 1.24 1.27
0.00 0.00 0.02 0.01 0.00 0.01 0.03 0.13 0.25 0.30 0.26 0.24 0.23 0.20 0.15 0.15 0.11 0.14 0.12 0.13 0.15 0.18 0.18 0.13 0.11 0.12 0.13 0.11 0.09 0.11 0.10 0.12 0.10 0.21 0.45 0.61 0.72 0.82 0.96 1.25 1.10 1.09 0.91 0.89
0.00 0.00 0.04 0.06 0.03 0.03 0.04 0.01 0.05 0.24 0.31 0.19 0.26 0.24 0.22 0.29 0.34 0.23 0.15 0.15 0.20 0.21 0.16 0.14 0.17 0.18 0.19 0.19 0.16 0.13 0.12 0.09 0.14 0.17 0.27 0.37 0.47 0.66 0.94 1.22 1.39 1.38 1.31 1.13
0.02 0.03 0.04 0.02 0.05 0.05 0.04 0.04 0.16 0.40 0.31 0.21 0.33 0.34 0.35 0.42 0.35 0.24 0.17 0.18 0.19 0.16 0.18 0.18 0.19 0.25 0.24 0.15 0.10 0.09 0.07 0.11 0.15 0.15 0.11 0.08 0.13 0.27 0.47 0.75 1.06 1.37 1.60 1.56
0.15 0.09 0.11 0.11 0.15 0.12 0.04 0.08 0.26 0.40 0.31 0.27 0.36 0.36 0.36 0.31 0.21 0.15 0.14 0.15 0.15 0.18 0.18 0.15 0.16 0.15 0.09 0.04 0.01 0.01 0.04 0.08 0.08 0.09 0.10 0.09 0.06 0.08 0.15 0.23 0.39 0.61 0.89 1.25
0.17 0.19 0.21 0.17 0.17 0.17 0.13 0.21 0.27 0.30 0.28 0.32 0.31 0.31 0.23 0.22 0.21 0.18 0.18 0.18 0.20 0.19 0.15 0.09 0.05 0.02 0.01 0.01 0.01 0.01 0.04 0.02 0.02 0.04 0.06 0.08 0.08 0.07 0.06 0.06 0.10 0.14 0.24 0.37
0.05 0.10 0.11 0.11 0.13 0.14 0.21 0.18 0.16 0.19 0.21 0.23 0.19 0.16 0.11 0.14 0.16 0.17 0.18 0.17 0.14 0.09 0.03 0.01 0.00 0.00 0.02 0.02 0.02 0.02 0.01 0.01 0.01 0.02 0.04 0.05 0.05 0.06 0.05 0.05 0.06 0.07 0.11 0.15
0.01 0.01 0.03 0.06 0.09 0.09 0.14 0.17 0.15 0.17 0.15 0.13 0.12 0.07 0.06 0.06 0.08 0.06 0.06 0.05 0.03 0.03 0.02 0.01 0.01 0.01 0.02 0.02 0.01 0.03 0.02 0.00 0.01 0.02 0.03 0.04 0.04 0.05 0.06 0.08 0.10 0.09 0.13 0.11
0.00 0.02 0.02 0.03 0.02 0.03 0.10 0.14 0.12 0.11 0.13 0.09 0.04 0.03 0.02 0.01 0.02 0.02 0.02 0.03 0.02 0.02 0.02 0.01 0.01 0.01 0.01 0.01 0.01 0.01 0.02 0.01 0.01 0.00 0.01 0.01 0.01 0.02 0.03 0.03 0.06 0.07 0.08 0.06

GFSCGP_prec_precacc24_117.txt.gz
Total_Precipitation_Accumulation
0.00 0.00 0.00 0.00 0.00 0.00 0.00 0.00 0.00 0.00 0.00 0.00 0.00 0.00 0.00 0.00 0.00 0.00 0.00 0.00 0.00 0.00 0.00 0.00 0.00 0.00 0.00 0.00 0.00 0.00 0.00 0.00 0.00 0.01 0.01 0.02 0.01 0.01 0.02 0.03 0.09 0.03 0.18 0.13
0.01 0.01 0.00 0.00 0.00 0.00 0.00 0.00 0.00 0.00 0.00 0.00 0.00 0.00 0.00 0.00 0.00 0.00 0.00 0.00 0.00 0.00 0.00 0.00 0.00 0.00 0.00 0.00 0.00 0.00 0.00 0.00 0.00 0.00 0.00 0.00 0.00 0.01 0.14 0.18 0.20 0.13 0.07 0.17
0.02 0.01 0.00 0.01 0.03 0.02 0.01 0.00 0.00 0.00 0.00 0.00 0.01 0.00 0.00 0.00 0.00 0.00 0.00 0.00 0.00 0.00 0.00 0.00 0.00 0.00 0.00 0.00 0.00 0.00 0.00 0.00 0.00 0.00 0.00 0.01 0.06 0.14 0.24 0.29 0.25 0.23 0.24 0.21
0.06 0.02 0.02 0.02 0.02 0.01 0.04 0.00 0.01 0.01 0.02 0.04 0.01 0.07 0.00 0.00 0.00 0.00 0.00 0.01 0.04 0.07 0.01 0.00 0.00 0.00 0.00 0.00 0.00 0.00 0.00 0.00 0.00 0.00 0.00 0.00 0.00 0.00 0.01 0.04 0.17 0.26 0.52 0.69
0.04 0.01 0.03 0.05 0.02 0.02 0.03 0.01 0.02 0.02 0.02 0.04 0.01 0.06 0.02 0.00 0.00 0.00 0.00 0.02 0.09 0.12 0.08 0.05 0.02 0.01 0.01 0.01 0.00 0.00 0.00 0.00 0.00 0.00 0.00 0.00 0.00 0.00 0.00 0.01 0.05 0.09 0.22 0.28
0.03 0.05 0.03 0.02 0.01 0.03 0.04 0.04 0.01 0.01 0.06 0.18 0.02 0.02 0.04 0.01 0.01 0.01 0.05 0.05 0.06 0.08 0.04 0.05 0.07 0.05 0.03 0.01 0.00 0.00 0.00 0.00 0.00 0.00 0.00 0.01 0.01 0.00 0.01 0.00 0.03 0.06 0.09 0.15
0.04 0.07 0.02 0.00 0.01 0.01 0.06 0.14 0.19 0.15 0.13 0.08 0.00 0.06 0.05 0.03 0.04 0.09 0.19 0.42 0.29 0.18 0.12 0.05 0.01 0.01 0.03 0.02 0.00 0.00 0.01 0.00 0.00 0.01 0.01 0.01 0.01 0.02 0.02 0.02 0.05 0.13 0.25 0.31
0.07 0.04 0.00 0.00 0.00 0.02 0.02 0.05 0.09 0.12 0.09 0.05 0.04 0.14 0.09 0.15 0.26 0.62 0.60 0.68 0.57 0.42 0.33 0.18 0.06 0.02 0.01 0.01 0.01 0.02 0.04 0.03 0.04 0.05 0.05 0.09 0.14 0.17 0.15 0.14 0.19 0.14 0.10 0.11
0.03 0.02 0.00 0.00 0.00 0.02 0.09 0.07 0.00 0.10 0.11 0.13 0.05 0.03 0.11 0.54 1.10 0.92 0.89 0.75 0.53 0.47 0.38 0.35 0.21 0.07 0.03 0.03 0.03 0.05 0.06 0.07 0.11 0.16 0.14 0.16 0.24 0.33 0.36 0.32 0.43 0.37 0.24 0.20
0.02 0.04 0.01 0.00 0.00 0.00 0.01 0.02 0.12 0.17 0.09 0.07 0.02 0.16 0.49 0.54 1.04 0.91 0.84 0.66 0.60 0.45 0.41 0.29 0.19 0.11 0.06 0.06 0.06 0.13 0.12 0.14 0.19 0.27 0.29 0.28 0.31 0.35 0.45 0.44 0.49 0.43 0.37 0.31
0.02 0.04 0.02 0.01 0.01 0.01 0.00 0.03 0.11 0.21 0.13 0.12 0.07 0.36 0.68 0.94 0.83 0.51 0.50 0.42 0.32 0.19 0.11 0.11 0.10 0.07 0.05 0.06 0.09 0.11 0.16 0.26 0.31 0.33 0.47 0.41 0.35 0.38 0.37 0.43 0.47 0.53 0.46 0.47
0.07 0.08 0.03 0.00 0.00 0.00 0.00 0.00 0.09 0.24 0.31 0.37 0.29 0.39 0.38 0.46 0.39 0.12 0.01 0.02 0.06 0.04 0.04 0.03 0.02 0.01 0.01 0.04 0.05 0.07 0.13 0.31 0.30 0.24 0.37 0.36 0.42 0.50 0.42 0.44 0.50 0.42 0.37 0.47
0.15 0.22 0.15 0.10 0.05 0.02 0.02 0.00 0.02 0.05 0.06 0.05 0.06 0.15 0.22 0.11 0.05 0.02 0.00 0.00 0.00 0.00 0.00 0.00 0.00 0.00 0.00 0.05 0.07 0.09 0.12 0.23 0.27 0.27 0.36 0.37 0.37 0.50 0.49 0.46 0.42 0.40 0.27 0.29
0.08 0.10 0.08 0.07 0.04 0.01 0.01 0.01 0.00 0.01 0.02 0.01 0.01 0.02 0.08 0.06 0.00 0.03 0.05 0.04 0.02 0.00 0.00 0.00 0.00 0.00 0.00 0.01 0.05 0.09 0.23 0.31 0.50 0.47 0.36 0.49 0.74 0.75 0.57 0.51 0.49 0.42 0.36 0.16
0.02 0.01 0.02 0.03 0.05 0.05 0.04 0.02 0.01 0.00 0.00 0.00 0.00 0.00 0.01 0.00 0.00 0.05 0.08 0.05 0.02 0.00 0.00 0.00 0.00 0.00 0.00 0.00 0.01 0.02 0.09 0.25 0.40 0.62 0.60 0.55 0.85 1.07 1.26 1.35 1.23 0.69 0.55 0.38
0.00 0.03 0.02 0.02 0.00 0.00 0.01 0.00 0.00 0.00 0.00 0.00 0.00 0.00 0.00 0.00 0.01 0.04 0.11 0.08 0.04 0.02 0.01 0.00 0.00 0.00 0.00 0.01 0.02 0.02 0.03 0.04 0.15 0.27 0.33 0.50 1.09 0.98 1.09 1.38 1.56 1.14 0.74 0.78
0.00 0.02 0.05 0.06 0.03 0.15 0.12 0.00 0.01 0.02 0.01 0.01 0.01 0.00 0.00 0.01 0.04 0.06 0.08 0.07 0.06 0.04 0.02 0.02 0.02 0.02 0.03 0.04 0.06 0.07 0.11 0.06 0.06 0.16 0.50 0.69 0.81 1.38 1.19 1.33 1.47 1.71 1.35 0.97
0.00 0.01 0.03 0.02 0.03 0.14 0.04 0.00 0.04 0.10 0.07 0.03 0.02 0.04 0.02 0.02 0.09 0.12 0.11 0.12 0.11 0.07 0.07 0.05 0.05 0.06 0.07 0.06 0.06 0.08 0.09 0.08 0.07 0.12 0.26 0.37 0.42 0.91 1.44 1.12 1.06 1.09 1.25 1.27
0.00 0.00 0.02 0.01 0.02 0.01 0.01 0.01 0.05 0.18 0.16 0.10 0.10 0.12 0.10 0.13 0.11 0.14 0.12 0.12 0.14 0.16 0.17 0.13 0.11 0.12 0.13 0.12 0.10 0.10 0.09 0.12 0.08 0.16 0.25 0.40 0.55 0.65 0.88 1.18 1.05 1.07 0.90 0.89
0.00 0.00 0.02 0.04 0.02 0.03 0.04 0.00 0.00 0.09 0.20 0.11 0.18 0.21 0.21 0.28 0.34 0.23 0.15 0.15 0.19 0.21 0.16 0.14 0.17 0.18 0.19 0.20 0.16 0.13 0.11 0.08 0.09 0.12 0.19 0.25 0.32 0.49 0.65 0.98 1.28 1.31 1.25 1.09
0.02 0.03 0.03 0.02 0.03 0.04 0.01 0.00 0.03 0.18 0.19 0.15 0.31 0.34 0.35 0.41 0.34 0.24 0.16 0.18 0.19 0.16 0.19 0.18 0.19 0.26 0.25 0.16 0.10 0.08 0.03 0.05 0.07 0.06 0.04 0.03 0.03 0.12 0.30 0.51 0.80 1.14 1.44 1.45
0.07 0.04 0.07 0.05 0.06 0.08 0.01 0.03 0.11 0.21 0.19 0.24 0.35 0.36 0.36 0.31 0.21 0.15 0.13 0.15 0.16 0.19 0.18 0.16 0.16 0.16 0.09 0.04 0.01 0.00 0.03 0.04 0.02 0.01 0.01 0.01 0.01 0.02 0.05 0.08 0.20 0.39 0.65 1.03
0.05 0.08 0.10 0.10 0.10 0.08 0.05 0.12 0.15 0.19 0.22 0.30 0.30 0.31 0.23 0.22 0.21 0.17 0.18 0.18 0.20 0.19 0.15 0.09 0.05 0.02 0.01 0.01 0.01 0.01 0.02 0.00 0.00 0.00 0.01 0.01 0.01 0.01 0.02 0.01 0.02 0.04 0.10 0.20
0.03 0.05 0.05 0.07 0.09 0.08 0.11 0.11 0.12 0.16 0.18 0.21 0.18 0.16 0.11 0.14 0.16 0.17 0.18 0.17 0.14 0.08 0.02 0.01 0.00 0.00 0.01 0.01 0.01 0.01 0.00 0.00 0.00 0.00 0.00 0.00 0.01 0.01 0.00 0.01 0.02 0.02 0.04 0.05
0.01 0.01 0.02 0.05 0.07 0.07 0.12 0.13 0.12 0.14 0.11 0.11 0.11 0.07 0.06 0.05 0.07 0.06 0.05 0.04 0.03 0.02 0.01 0.01 0.00 0.01 0.01 0.01 0.01 0.01 0.01 0.00 0.00 0.00 0.00 0.00 0.00 0.00 0.01 0.03 0.05 0.04 0.07 0.04
0.00 0.01 0.01 0.02 0.00 0.02 0.08 0.12 0.10 0.09 0.10 0.07 0.03 0.02 0.01 0.01 0.02 0.01 0.02 0.02 0.02 0.01 0.01 0.01 0.01 0.01 0.01 0.01 0.00 0.00 0.00 0.00 0.00 0.00 0.00 0.00 0.00 0.00 0.00 0.00 0.02 0.04 0.05 0.03

GFSCGP_prec_precacc24_120.txt.gz
Total_Precipitation_Accumulation
0.00 0.00 0.00 0.00 0.00 0.00 0.00 0.00 0.00 0.00 0.00 0.00 0.00 0.00 0.00 0.00 0.00 0.00 0.00 0.00 0.00 0.00 0.00 0.00 0.00 0.00 0.00 0.00 0.00 0.00 0.00 0.00 0.00 0.00 0.00 0.00 0.00 0.01 0.01 0.01 0.05 0.02 0.18 0.13
0.01 0.01 0.00 0.00 0.00 0.00 0.00 0.00 0.00 0.00 0.00 0.00 0.00 0.00 0.00 0.00 0.00 0.00 0.00 0.00 0.00 0.00 0.00 0.00 0.00 0.00 0.00 0.00 0.00 0.00 0.00 0.00 0.00 0.00 0.00 0.00 0.00 0.00 0.07 0.05 0.03 0.05 0.06 0.17
0.02 0.01 0.00 0.01 0.03 0.02 0.01 0.00 0.00 0.00 0.00 0.00 0.01 0.00 0.00 0.00 0.00 0.00 0.00 0.00 0.00 0.00 0.00 0.00 0.00 0.00 0.00 0.00 0.00 0.00 0.00 0.00 0.00 0.00 0.00 0.00 0.02 0.05 0.08 0.02 0.01 0.08 0.19 0.20
0.06 0.02 0.02 0.02 0.02 0.01 0.04 0.00 0.01 0.01 0.02 0.04 0.01 0.07 0.00 0.00 0.00 0.00 0.00 0.01 0.04 0.07 0.01 0.00 0.00 0.00 0.01 0.01 0.00 0.00 0.00 0.00 0.00 0.00 0.00 0.00 0.00 0.00 0.00 0.00 0.02 0.09 0.42 0.66
0.04 0.01 0.03 0.05 0.02 0.02 0.03 0.01 0.02 0.02 0.02 0.04 0.01 0.06 0.02 0.00 0.00 0.01 0.01 0.02 0.10 0.12 0.08 0.05 0.03 0.02 0.02 0.01 0.01 0.01 0.02 0.03 0.01 0.00 0.00 0.00 0.00 0.00 0.00 0.00 0.02 0.04 0.20 0.25
0.03 0.05 0.03 0.02 0.01 0.03 0.04 0.04 0.01 0.01 0.06 0.18 0.02 0.02 0.04 0.01 0.02 0.01 0.07 0.07 0.09 0.12 0.08 0.09 0.10 0.07 0.04 0.01 0.00 0.00 0.00 0.01 0.01 0.01 0.00 0.01 0.01 0.00 0.01 0.00 0.01 0.05 0.09 0.14
0.04 0.07 0.02 0.00 0.01 0.01 0.06 0.14 0.21 0.16 0.13 0.08 0.00 0.06 0.05 0.04 0.04 0.09 0.19 0.44 0.34 0.25 0.20 0.13 0.09 0.07 0.07 0.06 0.06 0.05 0.03 0.01 0.01 0.01 0.01 0.01 0.01 0.01 0.01 0.02 0.05 0.13 0.25 0.30
0.07 0.04 0.00 0.00 0.00 0.02 0.02 0.05 0.11 0.13 0.09 0.05 0.04 0.14 0.09 0.15 0.26 0.62 0.60 0.69 0.61 0.50 0.44 0.30 0.17 0.11 0.07 0.05 0.03 0.04 0.05 0.05 0.04 0.04 0.05 0.05 0.05 0.05 0.04 0.06 0.15 0.14 0.10 0.11
0.03 0.02 0.00 0.00 0.00 0.02 0.09 0.07 0.01 0.12 0.13 0.14 0.05 0.03 0.12 0.54 1.10 0.92 0.89 0.75 0.54 0.49 0.43 0.38 0.30 0.18 0.11 0.06 0.02 0.02 0.01 0.01 0.06 0.10 0.10 0.11 0.14 0.18 0.21 0.16 0.30 0.33 0.24 0.20
0.02 0.04 0.00 0.00 0.00 0.00 0.01 0.02 0.13 0.20 0.11 0.07 0.02 0.16 0.50 0.55 1.05 0.92 0.85 0.68 0.60 0.45 0.41 0.28 0.18 0.14 0.10 0.09 0.05 0.03 0.03 0.05 0.08 0.16 0.19 0.18 0.19 0.24 0.30 0.31 0.42 0.40 0.37 0.31
0.02 0.04 0.02 0.01 0.01 0.01 0.01 0.04 0.11 0.21 0.13 0.11 0.07 0.36 0.68 0.94 0.83 0.51 0.50 0.42 0.32 0.19 0.11 0.12 0.10 0.09 0.08 0.08 0.09 0.06 0.06 0.13 0.18 0.24 0.30 0.25 0.24 0.26 0.24 0.28 0.37 0.47 0.45 0.47
0.08 0.11 0.03 0.01 0.00 0.01 0.02 0.01 0.10 0.24 0.28 0.32 0.26 0.38 0.38 0.46 0.39 0.12 0.01 0.02 0.05 0.04 0.04 0.03 0.02 0.01 0.01 0.02 0.04 0.03 0.03 0.14 0.24 0.18 0.28 0.26 0.33 0.36 0.31 0.33 0.43 0.40 0.37 0.47
0.20 0.27 0.16 0.11 0.05 0.02 0.02 0.00 0.02 0.06 0.10 0.07 0.05 0.15 0.22 0.11 0.05 0.01 0.00 0.00 0.00 0.00 0.00 0.00 0.00 0.00 0.00 0.00 0.03 0.06 0.09 0.13 0.17 0.16 0.25 0.18 0.18 0.35 0.42 0.41 0.41 0.40 0.27 0.28
0.14 0.13 0.09 0.08 0.04 0.01 0.01 0.01 0.02 0.08 0.15 0.03 0.00 0.02 0.08 0.06 0.00 0.00 0.00 0.00 0.00 0.00 0.00 0.00 0.00 0.00 0.00 0.00 0.02 0.06 0.17 0.24 0.41 0.36 0.26 0.34 0.38 0.45 0.48 0.49 0.49 0.42 0.36 0.16
0.07 0.04 0.03 0.03 0.05 0.05 0.04 0.03 0.04 0.10 0.08 0.06 0.02 0.00 0.01 0.00 0.00 0.00 0.00 0.00 0.00 0.00 0.00 0.00 0.00 0.00 0.00 0.00 0.00 0.01 0.04 0.16 0.33 0.55 0.52 0.35 0.44 0.61 0.87 1.27 1.22 0.68 0.55 0.38
0.02 0.04 0.03 0.02 0.01 0.01 0.01 0.01 0.01 0.03 0.04 0.06 0.02 0.01 0.00 0.00 0.00 0.00 0.01 0.01 0.02 0.02 0.01 0.00 0.00 0.00 0.01 0.01 0.02 0.02 0.03 0.04 0.11 0.22 0.23 0.26 0.21 0.32 0.52 0.98 1.53 1.13 0.74 0.78
0.01 0.02 0.06 0.07 0.03 0.17 0.17 0.00 0.00 0.00 0.00 0.01 0.01 0.00 0.00 0.01 0.03 0.01 0.02 0.03 0.05 0.03 0.02 0.02 0.02 0.02 0.03 0.05 0.05 0.07 0.11 0.06 0.03 0.08 0.20 0.24 0.42 0.42 0.47 0.83 1.40 1.70 1.34 0.97
0.01 0.02 0.06 0.05 0.06 0.19 0.05 0.00 0.00 0.00 0.01 0.01 0.01 0.02 0.01 0.02 0.05 0.05 0.06 0.09 0.10 0.06 0.06 0.05 0.04 0.06 0.07 0.07 0.07 0.07 0.08 0.07 0.06 0.08 0.15 0.18 0.25 0.40 0.61 0.73 0.97 1.07 1.24 1.27
0.00 0.01 0.06 0.03 0.04 0.02 0.01 0.00 0.01 0.02 0.04 0.03 0.03 0.05 0.05 0.10 0.10 0.14 0.11 0.11 0.13 0.15 0.16 0.12 0.10 0.12 0.14 0.13 0.12 0.11 0.10 0.10 0.05 0.11 0.16 0.22 0.26 0.27 0.42 0.75 0.84 0.98 0.85 0.87
0.00 0.00 0.04 0.05 0.02 0.03 0.03 0.00 0.00 0.04 0.10 0.04 0.03 0.09 0.12 0.21 0.29 0.21 0.14 0.14 0.18 0.19 0.14 0.13 0.17 0.18 0.19 0.21 0.16 0.14 0.11 0.06 0.06 0.08 0.16 0.20 0.17 0.21 0.39 0.69 0.98 1.16 1.16 1.03
0.04 0.05 0.04 0.02 0.03 0.04 0.01 0.00 0.01 0.09 0.10 0.06 0.13 0.20 0.25 0.34 0.30 0.21 0.15 0.17 0.18 0.15 0.17 0.18 0.19 0.25 0.25 0.16 0.10 0.08 0.03 0.04 0.05 0.03 0.02 0.01 0.02 0.05 0.16 0.35 0.62 1.00 1.29 1.37
0.03 0.03 0.04 0.03 0.04 0.06 0.00 0.00 0.04 0.09 0.10 0.14 0.22 0.29 0.34 0.29 0.19 0.14 0.12 0.14 0.15 0.18 0.17 0.15 0.15 0.15 0.09 0.04 0.01 0.00 0.02 0.03 0.01 0.00 0.00 0.00 0.00 0.01 0.02 0.02 0.12 0.29 0.53 0.90
0.03 0.05 0.06 0.05 0.05 0.03 0.02 0.04 0.06 0.08 0.14 0.21 0.25 0.29 0.22 0.21 0.20 0.16 0.18 0.18 0.19 0.18 0.14 0.08 0.04 0.01 0.00 0.00 0.00 0.01 0.01 0.00 0.00 0.00 0.00 0.00 0.00 0.00 0.00 0.00 0.00 0.01 0.04 0.11
0.01 0.02 0.02 0.04 0.04 0.03 0.05 0.05 0.06 0.10 0.14 0.17 0.16 0.15 0.11 0.13 0.15 0.17 0.18 0.17 0.13 0.08 0.02 0.00 0.00 0.00 0.00 0.00 0.00 0.01 0.00 0.00 0.00 0.00 0.00 0.00 0.00 0.00 0.00 0.00 0.00 0.00 0.01 0.01
0.01 0.01 0.01 0.04 0.05 0.04 0.06 0.05 0.06 0.10 0.09 0.10 0.10 0.06 0.05 0.05 0.07 0.05 0.06 0.04 0.03 0.02 0.01 0.00 0.00 0.00 0.00 0.00 0.00 0.00 0.00 0.00 0.00 0.00 0.00 0.00 0.00 0.00 0.00 0.02 0.04 0.03 0.03 0.02
0.00 0.01 0.01 0.02 0.00 0.02 0.06 0.07 0.07 0.08 0.09 0.06 0.02 0.01 0.01 0.00 0.01 0.01 0.01 0.01 0.01 0.01 0.01 0.00 0.00 0.00 0.00 0.00 0.00 0.00 0.00 0.00 0.00 0.00 0.00 0.00 0.00 0.00 0.00 0.00 0.01 0.02 0.03 0.01

GFSCGP_prec_precacc24_123.txt.gz
Total_Precipitation_Accumulation
0.00 0.00 0.00 0.00 0.00 0.00 0.00 0.00 0.00 0.00 0.00 0.00 0.00 0.00 0.00 0.00 0.00 0.00 0.00 0.00 0.00 0.00 0.00 0.00 0.00 0.00 0.00 0.00 0.00 0.00 0.00 0.00 0.00 0.00 0.00 0.00 0.00 0.00 0.00 0.00 0.00 0.01 0.18 0.13
0.01 0.01 0.00 0.00 0.00 0.00 0.00 0.00 0.00 0.00 0.00 0.00 0.00 0.00 0.00 0.00 0.00 0.00 0.00 0.00 0.00 0.00 0.00 0.00 0.00 0.00 0.00 0.00 0.00 0.00 0.00 0.00 0.00 0.00 0.00 0.00 0.00 0.00 0.00 0.01 0.00 0.00 0.05 0.17
0.02 0.01 0.00 0.01 0.03 0.02 0.01 0.00 0.00 0.00 0.00 0.00 0.01 0.00 0.00 0.00 0.00 0.00 0.00 0.00 0.00 0.00 0.00 0.00 0.00 0.00 0.00 0.00 0.00 0.00 0.00 0.00 0.00 0.00 0.00 0.00 0.00 0.01 0.01 0.02 0.01 0.01 0.04 0.09
0.06 0.02 0.02 0.02 0.02 0.01 0.04 0.00 0.01 0.01 0.02 0.04 0.01 0.07 0.00 0.00 0.00 0.00 0.00 0.01 0.04 0.07 0.01 0.00 0.00 0.00 0.01 0.01 0.00 0.00 0.00 0.00 0.00 0.00 0.00 0.00 0.00 0.00 0.00 0.00 0.00 0.01 0.05 0.12
0.04 0.01 0.03 0.05 0.02 0.02 0.03 0.01 0.02 0.02 0.02 0.04 0.01 0.06 0.02 0.00 0.00 0.01 0.01 0.02 0.10 0.12 0.08 0.05 0.03 0.02 0.02 0.01 0.01 0.01 0.02 0.03 0.04 0.04 0.02 0.02 0.01 0.00 0.00 0.00 0.01 0.01 0.02 0.05
0.03 0.05 0.03 0.02 0.01 0.03 0.04 0.04 0.01 0.01 0.06 0.18 0.02 0.02 0.04 0.01 0.02 0.02 0.07 0.07 0.09 0.12 0.08 0.09 0.10 0.07 0.05 0.02 0.01 0.00 0.01 0.01 0.02 0.03 0.05 0.04 0.03 0.01 0.01 0.00 0.01 0.05 0.08 0.11
0.04 0.07 0.02 0.00 0.01 0.01 0.06 0.14 0.21 0.16 0.13 0.08 0.00 0.06 0.05 0.04 0.04 0.09 0.19 0.44 0.34 0.25 0.20 0.13 0.09 0.07 0.08 0.09 0.08 0.07 0.05 0.02 0.01 0.00 0.01 0.02 0.02 0.01 0.01 0.01 0.03 0.10 0.24 0.29
0.07 0.04 0.00 0.00 0.00 0.02 0.02 0.05 0.11 0.13 0.09 0.05 0.04 0.14 0.09 0.15 0.26 0.62 0.60 0.69 0.61 0.50 0.44 0.30 0.18 0.11 0.07 0.06 0.04 0.04 0.06 0.06 0.04 0.03 0.02 0.02 0.02 0.04 0.03 0.03 0.06 0.09 0.08 0.09
0.03 0.02 0.00 0.00 0.00 0.02 0.09 0.07 0.01 0.14 0.15 0.15 0.05 0.03 0.12 0.54 1.10 0.93 0.89 0.75 0.54 0.49 0.43 0.38 0.30 0.17 0.09 0.06 0.03 0.02 0.01 0.01 0.02 0.02 0.03 0.04 0.08 0.11 0.14 0.08 0.15 0.12 0.10 0.09
0.02 0.04 0.00 0.00 0.00 0.00 0.01 0.02 0.14 0.22 0.13 0.07 0.02 0.16 0.50 0.55 1.05 0.92 0.85 0.68 0.60 0.45 0.41 0.28 0.18 0.13 0.08 0.07 0.05 0.02 0.01 0.02 0.03 0.05 0.07 0.07 0.12 0.20 0.26 0.22 0.21 0.17 0.14 0.16
0.02 0.03 0.01 0.00 0.01 0.01 0.01 0.04 0.11 0.23 0.13 0.10 0.06 0.36 0.68 0.94 0.83 0.51 0.51 0.42 0.32 0.19 0.11 0.12 0.10 0.09 0.08 0.07 0.07 0.05 0.03 0.03 0.07 0.11 0.14 0.12 0.11 0.21 0.21 0.25 0.33 0.31 0.30 0.31
0.07 0.11 0.04 0.01 0.00 0.01 0.03 0.02 0.12 0.30 0.34 0.35 0.26 0.38 0.38 0.46 0.39 0.12 0.01 0.02 0.05 0.04 0.04 0.03 0.02 0.01 0.01 0.01 0.01 0.02 0.01 0.02 0.06 0.10 0.18 0.22 0.22 0.23 0.27 0.31 0.40 0.36 0.31 0.44
0.22 0.31 0.21 0.15 0.08 0.03 0.02 0.01 0.04 0.09 0.13 0.08 0.08 0.15 0.22 0.11 0.05 0.01 0.00 0.00 0.00 0.00 0.00 0.00 0.00 0.00 0.00 0.00 0.00 0.04 0.07 0.07 0.06 0.08 0.15 0.12 0.13 0.27 0.33 0.36 0.35 0.36 0.26 0.28
0.16 0.15 0.12 0.11 0.06 0.01 0.01 0.01 0.04 0.12 0.18 0.05 0.02 0.02 0.08 0.06 0.00 0.00 0.00 0.00 0.00 0.00 0.00 0.00 0.00 0.00 0.00 0.00 0.00 0.04 0.16 0.19 0.36 0.31 0.20 0.28 0.30 0.31 0.34 0.36 0.42 0.37 0.34 0.16
0.08 0.05 0.03 0.03 0.05 0.06 0.04 0.03 0.05 0.12 0.09 0.09 0.04 0.01 0.02 0.01 0.01 0.01 0.00 0.00 0.00 0.00 0.00 0.00 0.00 0.00 0.00 0.00 0.00 0.00 0.01 0.05 0.16 0.42 0.42 0.30 0.39 0.51 0.65 0.87 0.96 0.63 0.54 0.38
0.03 0.06 0.03 0.02 0.01 0.02 0.02 0.01 0.01 0.03 0.05 0.08 0.06 0.05 0.01 0.00 0.01 0.00 0.00 0.00 0.00 0.00 0.00 0.00 0.00 0.00 0.01 0.01 0.02 0.01 0.02 0.03 0.04 0.07 0.15 0.23 0.16 0.14 0.22 0.41 0.63 0.76 0.70 0.76
0.03 0.04 0.07 0.08 0.03 0.18 0.19 0.00 0.00 0.00 0.00 0.00 0.00 0.01 0.00 0.01 0.03 0.01 0.01 0.01 0.02 0.02 0.02 0.01 0.02 0.02 0.03 0.05 0.05 0.04 0.06 0.04 0.03 0.05 0.16 0.19 0.31 0.31 0.31 0.33 0.46 0.75 1.13 0.94
0.03 0.06 0.13 0.10 0.09 0.24 0.05 0.00 0.00 0.00 0.00 0.00 0.00 0.01 0.01 0.01 0.03 0.02 0.02 0.03 0.05 0.05 0.06 0.04 0.04 0.05 0.06 0.07 0.07 0.06 0.06 0.04 0.05 0.08 0.09 0.12 0.19 0.27 0.31 0.30 0.30 0.43 0.97 1.23
0.01 0.03 0.11 0.09 0.09 0.04 0.00 0.00 0.00 0.01 0.02 0.01 0.01 0.02 0.02 0.04 0.04 0.08 0.05 0.08 0.12 0.15 0.16 0.11 0.09 0.11 0.13 0.13 0.11 0.10 0.10 0.08 0.03 0.08 0.13 0.18 0.20 0.18 0.16 0.19 0.26 0.41 0.54 0.81
0.11 0.12 0.15 0.12 0.04 0.03 0.03 0.00 0.00 0.02 0.07 0.01 0.00 0.01 0.03 0.07 0.16 0.14 0.09 0.12 0.18 0.19 0.14 0.13 0.16 0.17 0.19 0.20 0.16 0.14 0.11 0.06 0.06 0.05 0.12 0.15 0.12 0.14 0.16 0.27 0.41 0.55 0.70 0.87
0.13 0.18 0.21 0.11 0.04 0.04 0.00 0.00 0.01 0.06 0.07 0.01 0.01 0.03 0.08 0.15 0.15 0.13 0.12 0.16 0.18 0.15 0.17 0.17 0.18 0.24 0.24 0.15 0.10 0.08 0.03 0.03 0.03 0.02 0.01 0.01 0.01 0.03 0.06 0.12 0.32 0.54 0.81 1.01
0.04 0.03 0.04 0.04 0.05 0.06 0.00 0.00 0.02 0.05 0.03 0.03 0.05 0.10 0.13 0.14 0.13 0.11 0.11 0.13 0.15 0.18 0.17 0.15 0.15 0.15 0.08 0.03 0.01 0.00 0.01 0.01 0.00 0.00 0.00 0.00 0.00 0.01 0.01 0.01 0.05 0.16 0.34 0.60
0.03 0.04 0.05 0.04 0.05 0.02 0.00 0.00 0.01 0.03 0.05 0.08 0.10 0.14 0.13 0.16 0.17 0.15 0.16 0.17 0.18 0.17 0.13 0.07 0.03 0.01 0.00 0.00 0.00 0.00 0.00 0.00 0.00 0.00 0.00 0.00 0.00 0.00 0.00 0.00 0.00 0.01 0.04 0.10
0.00 0.01 0.01 0.03 0.03 0.01 0.01 0.01 0.02 0.04 0.06 0.07 0.08 0.09 0.08 0.12 0.13 0.16 0.16 0.16 0.13 0.07 0.01 0.00 0.00 0.00 0.00 0.00 0.00 0.00 0.00 0.00 0.00 0.00 0.00 0.00 0.00 0.00 0.00 0.00 0.00 0.00 0.01 0.01
0.00 0.00 0.00 0.04 0.03 0.02 0.03 0.02 0.03 0.04 0.04 0.06 0.07 0.04 0.04 0.04 0.06 0.05 0.05 0.04 0.02 0.01 0.00 0.00 0.00 0.00 0.00 0.00 0.00 0.00 0.00 0.00 0.00 0.00 0.00 0.00 0.00 0.00 0.00 0.02 0.03 0.02 0.02 0.01
0.00 0.01 0.01 0.02 0.00 0.01 0.03 0.04 0.04 0.06 0.06 0.05 0.02 0.01 0.01 0.00 0.01 0.01 0.01 0.01 0.00 0.00 0.00 0.00 0.00 0.00 0.00 0.00 0.00 0.00 0.00 0.00 0.00 0.00 0.00 0.00 0.00 0.00 0.00 0.00 0.01 0.01 0.01 0.00

GFSCGP_prec_precacc24_126.txt.gz
Total_Precipitation_Accumulation
0.00 0.00 0.00 0.00 0.00 0.00 0.00 0.00 0.00 0.00 0.00 0.00 0.00 0.00 0.00 0.00 0.00 0.00 0.00 0.00 0.00 0.00 0.00 0.00 0.00 0.00 0.00 0.00 0.00 0.00 0.00 0.00 0.00 0.00 0.00 0.00 0.00 0.00 0.00 0.00 0.00 0.01 0.18 0.13
0.00 0.01 0.00 0.00 0.00 0.00 0.00 0.00 0.00 0.00 0.00 0.00 0.00 0.00 0.00 0.00 0.00 0.00 0.00 0.00 0.00 0.00 0.00 0.00 0.00 0.00 0.00 0.00 0.00 0.00 0.00 0.00 0.00 0.00 0.00 0.00 0.00 0.00 0.00 0.00 0.00 0.00 0.05 0.16
0.00 0.01 0.00 0.01 0.03 0.02 0.01 0.00 0.00 0.00 0.00 0.00 0.01 0.00 0.00 0.00 0.00 0.00 0.00 0.00 0.00 0.00 0.00 0.00 0.00 0.00 0.00 0.00 0.00 0.00 0.00 0.00 0.00 0.00 0.00 0.00 0.00 0.00 0.00 0.00 0.00 0.00 0.02 0.05
0.00 0.00 0.01 0.02 0.02 0.01 0.04 0.00 0.01 0.01 0.02 0.04 0.01 0.07 0.00 0.00 0.00 0.00 0.00 0.01 0.04 0.07 0.01 0.00 0.00 0.00 0.01 0.01 0.00 0.00 0.00 0.00 0.00 0.00 0.00 0.00 0.00 0.00 0.00 0.00 0.00 0.00 0.02 0.08
0.00 0.00 0.00 0.02 0.02 0.02 0.03 0.01 0.02 0.02 0.02 0.04 0.01 0.06 0.02 0.00 0.00 0.01 0.01 0.03 0.10 0.12 0.08 0.05 0.03 0.02 0.02 0.01 0.01 0.01 0.02 0.03 0.04 0.04 0.02 0.01 0.01 0.00 0.00 0.00 0.00 0.01 0.01 0.04
0.02 0.04 0.01 0.00 0.00 0.03 0.04 0.04 0.01 0.01 0.06 0.18 0.02 0.02 0.04 0.01 0.02 0.02 0.07 0.07 0.09 0.12 0.08 0.09 0.10 0.07 0.05 0.02 0.01 0.00 0.01 0.01 0.02 0.04 0.05 0.04 0.03 0.02 0.01 0.00 0.00 0.03 0.06 0.09
0.04 0.07 0.02 0.00 0.01 0.01 0.06 0.14 0.20 0.16 0.13 0.08 0.00 0.06 0.05 0.04 0.04 0.09 0.19 0.44 0.34 0.25 0.20 0.13 0.09 0.07 0.08 0.09 0.09 0.07 0.05 0.03 0.01 0.00 0.01 0.02 0.03 0.04 0.04 0.03 0.03 0.09 0.22 0.28
0.07 0.04 0.00 0.00 0.00 0.02 0.02 0.05 0.11 0.12 0.09 0.05 0.04 0.14 0.09 0.15 0.26 0.62 0.60 0.69 0.61 0.50 0.44 0.30 0.18 0.11 0.07 0.06 0.05 0.04 0.05 0.06 0.04 0.03 0.02 0.02 0.01 0.02 0.01 0.02 0.06 0.09 0.08 0.09
0.02 0.02 0.00 0.00 0.00 0.02 0.09 0.07 0.01 0.14 0.15 0.15 0.05 0.03 0.12 0.54 1.10 0.93 0.89 0.75 0.54 0.49 0.43 0.38 0.30 0.17 0.09 0.06 0.03 0.02 0.01 0.00 0.00 0.01 0.01 0.01 0.03 0.06 0.06 0.07 0.12 0.09 0.11 0.09
0.01 0.04 0.00 0.00 0.00 0.00 0.01 0.02 0.14 0.24 0.14 0.08 0.02 0.16 0.49 0.55 1.05 0.92 0.85 0.68 0.60 0.46 0.41 0.28 0.18 0.13 0.08 0.05 0.03 0.01 0.00 0.00 0.00 0.00 0.01 0.03 0.06 0.17 0.23 0.20 0.17 0.10 0.07 0.13
0.02 0.03 0.01 0.00 0.01 0.01 0.01 0.04 0.11 0.23 0.14 0.11 0.07 0.36 0.68 0.94 0.83 0.51 0.51 0.43 0.32 0.19 0.11 0.12 0.10 0.09 0.08 0.06 0.04 0.03 0.02 0.02 0.01 0.01 0.02 0.04 0.05 0.15 0.17 0.20 0.29 0.27 0.28 0.27
0.07 0.11 0.04 0.01 0.00 0.01 0.03 0.02 0.14 0.32 0.36 0.37 0.31 0.40 0.38 0.46 0.39 0.12 0.01 0.02 0.05 0.04 0.04 0.03 0.02 0.01 0.01 0.01 0.01 0.01 0.00 0.00 0.00 0.00 0.01 0.02 0.06 0.08 0.12 0.21 0.29 0.27 0.25 0.39
0.23 0.33 0.23 0.16 0.10 0.04 0.03 0.01 0.06 0.14 0.19 0.15 0.16 0.16 0.22 0.11 0.05 0.01 0.00 0.00 0.00 0.00 0.00 0.00 0.00 0.00 0.00 0.00 0.00 0.01 0.01 0.02 0.01 0.01 0.01 0.03 0.06 0.10 0.11 0.13 0.19 0.22 0.22 0.27
0.18 0.16 0.14 0.12 0.08 0.04 0.05 0.04 0.09 0.18 0.24 0.08 0.03 0.03 0.08 0.06 0.00 0.00 0.00 0.00 0.00 0.00 0.00 0.00 0.00 0.00 0.00 0.00 0.00 0.00 0.00 0.04 0.15 0.22 0.15 0.09 0.12 0.13 0.18 0.20 0.27 0.29 0.29 0.16
0.09 0.05 0.04 0.03 0.06 0.07 0.05 0.04 0.06 0.14 0.12 0.13 0.04 0.01 0.02 0.01 0.01 0.02 0.01 0.01 0.00 0.00 0.00 0.00 0.00 0.00 0.00 0.00 0.00 0.00 0.00 0.01 0.02 0.10 0.25 0.26 0.24 0.34 0.49 0.75 0.83 0.52 0.50 0.36
0.05 0.07 0.04 0.02 0.01 0.03 0.03 0.01 0.01 0.04 0.05 0.08 0.06 0.05 0.01 0.00 0.02 0.02 0.02 0.01 0.00 0.00 0.00 0.00 0.00 0.00 0.01 0.01 0.01 0.01 0.01 0.01 0.02 0.03 0.05 0.10 0.09 0.11 0.19 0.32 0.53 0.51 0.56 0.70
0.05 0.06 0.10 0.09 0.03 0.21 0.22 0.00 0.00 0.00 0.00 0.00 0.00 0.00 0.00 0.00 0.02 0.01 0.01 0.00 0.00 0.01 0.01 0.01 0.02 0.02 0.03 0.04 0.04 0.04 0.04 0.01 0.02 0.04 0.04 0.05 0.15 0.20 0.21 0.18 0.18 0.31 0.38 0.49
0.04 0.08 0.19 0.15 0.14 0.33 0.06 0.00 0.00 0.00 0.00 0.00 0.00 0.00 0.00 0.00 0.02 0.01 0.01 0.01 0.01 0.02 0.04 0.04 0.04 0.05 0.06 0.07 0.07 0.06 0.05 0.03 0.03 0.06 0.08 0.08 0.13 0.22 0.26 0.27 0.20 0.18 0.30 0.48
0.02 0.05 0.14 0.12 0.11 0.05 0.00 0.00 0.00 0.00 0.00 0.00 0.00 0.00 0.00 0.00 0.01 0.05 0.01 0.01 0.04 0.07 0.13 0.10 0.08 0.10 0.13 0.13 0.11 0.10 0.10 0.08 0.02 0.05 0.10 0.14 0.15 0.15 0.12 0.13 0.13 0.15 0.13 0.25
0.11 0.13 0.18 0.15 0.07 0.04 0.03 0.00 0.00 0.00 0.03 0.01 0.00 0.00 0.01 0.03 0.12 0.10 0.04 0.05 0.09 0.14 0.12 0.10 0.14 0.16 0.18 0.20 0.16 0.13 0.11 0.06 0.05 0.04 0.09 0.11 0.08 0.11 0.12 0.15 0.18 0.22 0.26 0.32
0.14 0.20 0.25 0.22 0.16 0.09 0.00 0.00 0.00 0.03 0.05 0.00 0.00 0.01 0.02 0.09 0.08 0.04 0.04 0.10 0.13 0.12 0.14 0.15 0.18 0.24 0.23 0.15 0.10 0.08 0.03 0.02 0.02 0.01 0.00 0.00 0.00 0.01 0.03 0.04 0.10 0.20 0.31 0.42
0.07 0.11 0.12 0.16 0.20 0.13 0.00 0.00 0.01 0.04 0.01 0.00 0.01 0.02 0.05 0.06 0.05 0.05 0.07 0.09 0.11 0.15 0.15 0.14 0.15 0.14 0.08 0.03 0.01 0.00 0.00 0.00 0.00 0.00 0.00 0.00 0.00 0.00 0.00 0.00 0.01 0.06 0.14 0.23
0.03 0.04 0.06 0.05 0.06 0.01 0.00 0.00 0.00 0.01 0.01 0.02 0.02 0.04 0.04 0.06 0.07 0.09 0.11 0.13 0.15 0.16 0.13 0.07 0.03 0.01 0.00 0.00 0.00 0.00 0.00 0.00 0.00 0.00 0.00 0.00 0.00 0.00 0.00 0.00 0.00 0.00 0.02 0.06
0.00 0.00 0.00 0.02 0.01 0.00 0.00 0.00 0.00 0.01 0.02 0.02 0.02 0.03 0.04 0.07 0.09 0.12 0.14 0.15 0.12 0.07 0.01 0.00 0.00 0.00 0.00 0.00 0.00 0.00 0.00 0.00 0.00 0.00 0.00 0.00 0.00 0.00 0.00 0.00 0.00 0.00 0.00 0.01
0.01 0.00 0.00 0.02 0.02 0.01 0.01 0.00 0.00 0.01 0.01 0.02 0.02 0.01 0.01 0.02 0.04 0.04 0.05 0.03 0.02 0.01 0.00 0.00 0.00 0.00 0.00 0.00 0.00 0.00 0.00 0.00 0.00 0.00 0.00 0.00 0.00 0.00 0.00 0.01 0.02 0.01 0.01 0.01
0.00 0.01 0.01 0.02 0.00 0.00 0.01 0.00 0.00 0.01 0.01 0.01 0.00 0.00 0.00 0.00 0.01 0.00 0.01 0.01 0.00 0.00 0.00 0.00 0.00 0.00 0.00 0.00 0.00 0.00 0.00 0.00 0.00 0.00 0.00 0.00 0.00 0.00 0.00 0.00 0.01 0.01 0.00 0.00

GFSCGP_prec_precacc24_129.txt.gz
Total_Precipitation_Accumulation
0.00 0.00 0.00 0.00 0.00 0.00 0.00 0.00 0.00 0.00 0.00 0.00 0.00 0.00 0.00 0.00 0.00 0.00 0.00 0.00 0.00 0.00 0.00 0.00 0.00 0.00 0.00 0.00 0.00 0.00 0.00 0.00 0.00 0.00 0.00 0.00 0.00 0.00 0.00 0.00 0.00 0.01 0.18 0.12
0.00 0.00 0.00 0.00 0.00 0.00 0.00 0.00 0.00 0.00 0.00 0.00 0.00 0.00 0.00 0.00 0.00 0.00 0.00 0.00 0.00 0.00 0.00 0.00 0.00 0.00 0.00 0.00 0.00 0.00 0.00 0.00 0.00 0.00 0.00 0.00 0.00 0.00 0.00 0.00 0.00 0.00 0.04 0.16
0.00 0.00 0.00 0.00 0.00 0.00 0.00 0.00 0.00 0.00 0.00 0.00 0.01 0.00 0.00 0.00 0.00 0.00 0.00 0.00 0.00 0.00 0.00 0.00 0.00 0.00 0.00 0.00 0.00 0.00 0.00 0.00 0.00 0.00 0.00 0.00 0.00 0.00 0.00 0.00 0.00 0.00 0.01 0.04
0.00 0.00 0.00 0.00 0.00 0.00 0.01 0.00 0.00 0.01 0.02 0.04 0.01 0.07 0.00 0.00 0.00 0.00 0.00 0.01 0.04 0.07 0.01 0.00 0.00 0.00 0.01 0.01 0.00 0.00 0.00 0.00 0.00 0.00 0.00 0.00 0.00 0.00 0.00 0.00 0.00 0.00 0.00 0.05
0.00 0.00 0.00 0.00 0.00 0.00 0.01 0.00 0.01 0.02 0.02 0.04 0.01 0.06 0.02 0.00 0.00 0.01 0.01 0.03 0.10 0.12 0.08 0.05 0.03 0.02 0.02 0.01 0.01 0.01 0.02 0.03 0.04 0.04 0.02 0.01 0.01 0.00 0.00 0.00 0.00 0.00 0.00 0.03
0.00 0.00 0.00 0.00 0.00 0.00 0.02 0.02 0.01 0.01 0.06 0.18 0.02 0.02 0.04 0.01 0.02 0.02 0.07 0.07 0.09 0.12 0.08 0.09 0.10 0.07 0.05 0.02 0.01 0.00 0.01 0.01 0.02 0.04 0.05 0.04 0.03 0.02 0.01 0.00 0.00 0.00 0.03 0.07
0.00 0.00 0.00 0.00 0.00 0.00 0.03 0.10 0.13 0.08 0.10 0.07 0.00 0.06 0.05 0.04 0.04 0.09 0.19 0.44 0.34 0.25 0.20 0.13 0.09 0.07 0.08 0.09 0.09 0.07 0.05 0.03 0.01 0.00 0.01 0.02 0.03 0.04 0.04 0.03 0.01 0.04 0.18 0.24
0.02 0.02 0.00 0.00 0.00 0.01 0.01 0.04 0.07 0.09 0.07 0.03 0.03 0.14 0.07 0.15 0.26 0.62 0.60 0.69 0.61 0.50 0.44 0.30 0.18 0.11 0.07 0.06 0.05 0.04 0.05 0.06 0.04 0.03 0.02 0.02 0.01 0.01 0.01 0.01 0.01 0.03 0.08 0.08
0.02 0.02 0.00 0.00 0.00 0.02 0.07 0.07 0.01 0.13 0.14 0.15 0.04 0.02 0.09 0.54 1.10 0.93 0.89 0.75 0.54 0.49 0.43 0.38 0.30 0.17 0.09 0.06 0.03 0.02 0.01 0.00 0.00 0.00 0.01 0.01 0.02 0.04 0.04 0.04 0.03 0.03 0.07 0.07
0.01 0.02 0.00 0.00 0.00 0.00 0.00 0.02 0.13 0.22 0.13 0.07 0.02 0.16 0.45 0.53 1.04 0.92 0.85 0.68 0.60 0.46 0.41 0.28 0.18 0.13 0.08 0.05 0.03 0.01 0.00 0.00 0.00 0.00 0.00 0.00 0.01 0.03 0.04 0.07 0.09 0.07 0.05 0.09
0.02 0.03 0.01 0.00 0.00 0.00 0.01 0.03 0.08 0.21 0.12 0.09 0.06 0.33 0.64 0.92 0.83 0.51 0.51 0.43 0.32 0.19 0.11 0.12 0.10 0.09 0.08 0.06 0.04 0.03 0.02 0.02 0.01 0.00 0.00 0.00 0.01 0.04 0.05 0.07 0.16 0.20 0.23 0.21
0.07 0.11 0.04 0.01 0.00 0.01 0.03 0.02 0.13 0.32 0.35 0.36 0.31 0.37 0.36 0.46 0.39 0.12 0.01 0.02 0.05 0.04 0.04 0.03 0.02 0.01 0.01 0.01 0.01 0.01 0.00 0.00 0.00 0.00 0.00 0.00 0.00 0.01 0.03 0.11 0.17 0.20 0.20 0.29
0.24 0.33 0.23 0.16 0.11 0.05 0.03 0.01 0.06 0.15 0.23 0.17 0.21 0.16 0.21 0.11 0.05 0.01 0.00 0.00 0.00 0.00 0.00 0.00 0.00 0.00 0.00 0.00 0.00 0.01 0.01 0.01 0.00 0.00 0.00 0.00 0.01 0.01 0.01 0.01 0.06 0.10 0.14 0.22
0.18 0.17 0.14 0.12 0.09 0.08 0.09 0.06 0.11 0.21 0.31 0.14 0.06 0.04 0.08 0.06 0.01 0.00 0.00 0.00 0.00 0.00 0.00 0.00 0.00 0.00 0.00 0.00 0.00 0.00 0.00 0.00 0.00 0.00 0.00 0.01 0.02 0.01 0.01 0.02 0.04 0.05 0.06 0.08
0.10 0.06 0.04 0.03 0.06 0.09 0.08 0.06 0.07 0.17 0.16 0.20 0.07 0.03 0.02 0.01 0.02 0.02 0.01 0.01 0.01 0.00 0.00 0.00 0.00 0.00 0.00 0.00 0.00 0.00 0.00 0.00 0.00 0.00 0.00 0.03 0.08 0.07 0.11 0.12 0.25 0.26 0.17 0.19
0.07 0.09 0.04 0.03 0.01 0.03 0.03 0.01 0.01 0.04 0.05 0.09 0.06 0.06 0.01 0.00 0.02 0.02 0.02 0.01 0.00 0.00 0.00 0.00 0.00 0.00 0.01 0.01 0.01 0.01 0.01 0.01 0.00 0.01 0.02 0.01 0.01 0.03 0.06 0.09 0.17 0.26 0.28 0.43
0.09 0.09 0.12 0.11 0.03 0.22 0.24 0.00 0.00 0.00 0.00 0.00 0.00 0.00 0.00 0.00 0.00 0.01 0.00 0.00 0.00 0.00 0.01 0.01 0.02 0.02 0.03 0.04 0.04 0.04 0.04 0.01 0.01 0.01 0.03 0.02 0.02 0.03 0.10 0.11 0.08 0.12 0.22 0.22
0.10 0.12 0.24 0.18 0.15 0.39 0.08 0.00 0.00 0.00 0.00 0.00 0.00 0.00 0.00 0.00 0.00 0.00 0.00 0.00 0.01 0.01 0.02 0.02 0.03 0.04 0.05 0.07 0.07 0.06 0.05 0.03 0.02 0.03 0.04 0.05 0.06 0.08 0.13 0.16 0.15 0.13 0.11 0.12
0.02 0.07 0.19 0.15 0.13 0.06 0.00 0.00 0.00 0.00 0.00 0.00 0.00 0.00 0.00 0.00 0.01 0.04 0.01 0.00 0.01 0.02 0.05 0.07 0.06 0.08 0.10 0.11 0.11 0.10 0.10 0.08 0.02 0.03 0.07 0.10 0.12 0.13 0.11 0.12 0.12 0.13 0.08 0.08
0.11 0.14 0.22 0.17 0.09 0.04 0.01 0.00 0.00 0.00 0.02 0.00 0.00 0.00 0.01 0.02 0.05 0.06 0.02 0.01 0.03 0.05 0.08 0.09 0.10 0.12 0.14 0.19 0.16 0.13 0.11 0.06 0.04 0.02 0.05 0.07 0.06 0.09 0.11 0.12 0.12 0.11 0.10 0.16
0.15 0.23 0.28 0.23 0.17 0.07 0.00 0.00 0.00 0.01 0.02 0.00 0.00 0.00 0.00 0.05 0.05 0.02 0.01 0.04 0.06 0.08 0.12 0.12 0.14 0.20 0.21 0.14 0.10 0.08 0.03 0.02 0.01 0.00 0.00 0.00 0.00 0.01 0.02 0.02 0.04 0.06 0.08 0.09
0.09 0.14 0.15 0.21 0.25 0.13 0.00 0.00 0.00 0.01 0.00 0.00 0.00 0.01 0.02 0.03 0.03 0.02 0.02 0.05 0.09 0.13 0.13 0.12 0.13 0.13 0.08 0.03 0.01 0.00 0.00 0.00 0.00 0.00 0.00 0.00 0.00 0.00 0.00 0.00 0.00 0.01 0.02 0.04
0.03 0.03 0.06 0.10 0.11 0.03 0.00 0.00 0.00 0.00 0.00 0.00 0.00 0.01 0.00 0.01 0.02 0.03 0.06 0.10 0.11 0.12 0.12 0.07 0.03 0.01 0.00 0.00 0.00 0.00 0.00 0.00 0.00 0.00 0.00 0.00 0.00 0.00 0.00 0.00 0.00 0.00 0.00 0.00
0.01 0.01 0.01 0.02 0.01 0.00 0.00 0.00 0.00 0.00 0.00 0.00 0.00 0.00 0.00 0.02 0.03 0.07 0.10 0.12 0.10 0.06 0.01 0.00 0.00 0.00 0.00 0.00 0.00 0.00 0.00 0.00 0.00 0.00 0.00 0.00 0.00 0.00 0.00 0.00 0.00 0.00 0.00 0.00
0.06 0.03 0.03 0.04 0.02 0.01 0.01 0.00 0.00 0.00 0.00 0.00 0.00 0.00 0.00 0.01 0.03 0.03 0.04 0.03 0.01 0.01 0.00 0.00 0.00 0.00 0.00 0.00 0.00 0.00 0.00 0.00 0.00 0.00 0.00 0.00 0.00 0.00 0.00 0.01 0.02 0.01 0.00 0.00
0.01 0.02 0.02 0.05 0.03 0.02 0.02 0.00 0.00 0.00 0.00 0.00 0.00 0.00 0.00 0.00 0.01 0.00 0.01 0.01 0.00 0.00 0.00 0.00 0.00 0.00 0.00 0.00 0.00 0.00 0.00 0.00 0.00 0.00 0.00 0.00 0.00 0.00 0.00 0.00 0.00 0.01 0.00 0.00

GFSCGP_prec_precacc24_132.txt.gz
Total_Precipitation_Accumulation
0.00 0.00 0.00 0.00 0.00 0.00 0.00 0.00 0.00 0.00 0.00 0.00 0.00 0.00 0.00 0.00 0.00 0.00 0.00 0.00 0.00 0.00 0.00 0.00 0.00 0.00 0.00 0.00 0.00 0.00 0.00 0.00 0.00 0.00 0.00 0.00 0.00 0.00 0.00 0.00 0.00 0.00 0.10 0.10
0.00 0.00 0.00 0.00 0.00 0.00 0.00 0.00 0.00 0.00 0.00 0.00 0.00 0.00 0.00 0.00 0.00 0.00 0.00 0.00 0.00 0.00 0.00 0.00 0.00 0.00 0.00 0.00 0.00 0.00 0.00 0.00 0.00 0.00 0.00 0.00 0.00 0.00 0.00 0.00 0.00 0.00 0.00 0.03
0.00 0.00 0.00 0.00 0.00 0.00 0.00 0.00 0.00 0.00 0.00 0.00 0.00 0.00 0.00 0.00 0.00 0.00 0.00 0.00 0.00 0.00 0.00 0.00 0.00 0.00 0.00 0.00 0.00 0.00 0.00 0.00 0.00 0.00 0.00 0.00 0.00 0.00 0.00 0.00 0.00 0.00 0.00 0.00
0.00 0.00 0.00 0.00 0.00 0.00 0.00 0.00 0.00 0.00 0.00 0.00 0.00 0.04 0.00 0.00 0.00 0.00 0.00 0.01 0.04 0.07 0.01 0.00 0.00 0.00 0.01 0.01 0.00 0.00 0.00 0.00 0.00 0.00 0.00 0.00 0.00 0.00 0.00 0.00 0.00 0.00 0.00 0.01
0.00 0.00 0.00 0.00 0.00 0.00 0.00 0.00 0.00 0.00 0.00 0.02 0.00 0.04 0.01 0.00 0.00 0.01 0.01 0.03 0.10 0.12 0.08 0.05 0.03 0.02 0.02 0.01 0.01 0.01 0.02 0.03 0.04 0.04 0.02 0.01 0.01 0.00 0.00 0.00 0.00 0.00 0.00 0.02
0.00 0.00 0.00 0.00 0.00 0.00 0.00 0.00 0.00 0.00 0.03 0.07 0.00 0.01 0.01 0.01 0.02 0.02 0.07 0.07 0.09 0.12 0.08 0.09 0.10 0.07 0.05 0.02 0.01 0.00 0.01 0.01 0.02 0.04 0.05 0.04 0.03 0.02 0.01 0.00 0.00 0.00 0.00 0.00
0.00 0.00 0.00 0.00 0.00 0.00 0.00 0.00 0.05 0.03 0.04 0.02 0.00 0.02 0.02 0.03 0.04 0.09 0.18 0.43 0.34 0.25 0.20 0.13 0.09 0.07 0.08 0.09 0.09 0.07 0.05 0.03 0.01 0.00 0.01 0.02 0.03 0.04 0.04 0.03 0.01 0.01 0.01 0.00
0.00 0.00 0.00 0.00 0.00 0.00 0.00 0.00 0.03 0.03 0.02 0.02 0.01 0.03 0.03 0.11 0.25 0.61 0.51 0.63 0.61 0.50 0.44 0.30 0.18 0.11 0.07 0.06 0.05 0.04 0.05 0.06 0.04 0.03 0.02 0.01 0.01 0.01 0.01 0.01 0.01 0.02 0.02 0.01
0.00 0.00 0.00 0.00 0.00 0.00 0.00 0.01 0.01 0.07 0.06 0.08 0.01 0.00 0.05 0.50 1.09 0.91 0.83 0.70 0.54 0.49 0.43 0.38 0.30 0.17 0.09 0.06 0.03 0.02 0.01 0.00 0.00 0.00 0.00 0.00 0.00 0.00 0.01 0.02 0.02 0.02 0.02 0.01
0.00 0.00 0.00 0.00 0.00 0.00 0.00 0.00 0.05 0.15 0.08 0.04 0.01 0.10 0.35 0.51 1.03 0.91 0.84 0.67 0.60 0.46 0.41 0.28 0.18 0.13 0.08 0.05 0.03 0.01 0.00 0.00 0.00 0.00 0.00 0.00 0.00 0.00 0.01 0.01 0.03 0.03 0.02 0.01
0.01 0.02 0.00 0.00 0.00 0.00 0.00 0.01 0.02 0.11 0.08 0.06 0.04 0.17 0.49 0.67 0.67 0.48 0.51 0.43 0.32 0.19 0.11 0.12 0.10 0.09 0.08 0.06 0.04 0.03 0.02 0.02 0.01 0.00 0.00 0.00 0.00 0.00 0.00 0.01 0.02 0.04 0.06 0.06
0.07 0.11 0.03 0.00 0.00 0.01 0.03 0.02 0.08 0.19 0.20 0.31 0.27 0.26 0.20 0.19 0.31 0.11 0.01 0.02 0.05 0.04 0.04 0.03 0.02 0.01 0.01 0.01 0.01 0.01 0.00 0.00 0.00 0.00 0.00 0.00 0.00 0.00 0.00 0.00 0.01 0.01 0.03 0.03
0.24 0.33 0.22 0.15 0.11 0.05 0.03 0.01 0.06 0.14 0.23 0.17 0.20 0.09 0.09 0.09 0.05 0.01 0.00 0.00 0.00 0.00 0.00 0.00 0.00 0.00 0.00 0.00 0.00 0.01 0.01 0.01 0.00 0.00 0.00 0.00 0.00 0.00 0.00 0.00 0.00 0.00 0.00 0.01
0.19 0.17 0.14 0.11 0.08 0.09 0.11 0.07 0.11 0.23 0.35 0.17 0.08 0.03 0.04 0.06 0.02 0.00 0.00 0.00 0.00 0.00 0.00 0.00 0.00 0.00 0.00 0.00 0.00 0.00 0.00 0.00 0.00 0.00 0.00 0.00 0.00 0.00 0.00 0.00 0.00 0.00 0.00 0.01
0.10 0.06 0.04 0.03 0.06 0.10 0.10 0.08 0.08 0.18 0.18 0.24 0.08 0.05 0.01 0.01 0.04 0.03 0.02 0.01 0.01 0.00 0.00 0.00 0.00 0.00 0.00 0.00 0.00 0.00 0.00 0.00 0.00 0.00 0.00 0.00 0.00 0.00 0.00 0.00 0.00 0.00 0.00 0.00
0.07 0.09 0.05 0.03 0.01 0.03 0.07 0.03 0.01 0.04 0.05 0.09 0.06 0.06 0.01 0.00 0.02 0.02 0.02 0.01 0.00 0.00 0.00 0.00 0.00 0.00 0.01 0.01 0.01 0.01 0.01 0.01 0.00 0.00 0.01 0.00 0.00 0.00 0.00 0.00 0.00 0.00 0.01 0.03
0.11 0.09 0.13 0.13 0.04 0.23 0.26 0.01 0.00 0.00 0.00 0.00 0.00 0.00 0.00 0.00 0.00 0.00 0.01 0.02 0.01 0.00 0.01 0.01 0.02 0.02 0.03 0.04 0.04 0.04 0.04 0.01 0.00 0.01 0.01 0.01 0.01 0.01 0.02 0.02 0.02 0.03 0.02 0.02
0.14 0.19 0.35 0.26 0.19 0.49 0.11 0.00 0.00 0.00 0.00 0.00 0.00 0.00 0.00 0.00 0.00 0.00 0.00 0.01 0.01 0.01 0.01 0.02 0.03 0.04 0.04 0.06 0.06 0.06 0.05 0.03 0.01 0.02 0.01 0.02 0.03 0.04 0.04 0.03 0.04 0.07 0.07 0.08
0.03 0.11 0.35 0.30 0.18 0.08 0.00 0.00 0.00 0.00 0.01 0.00 0.00 0.00 0.00 0.00 0.00 0.03 0.01 0.03 0.03 0.01 0.03 0.04 0.06 0.06 0.08 0.09 0.08 0.09 0.09 0.08 0.01 0.02 0.03 0.04 0.04 0.05 0.06 0.06 0.07 0.08 0.07 0.07
0.11 0.15 0.28 0.25 0.14 0.05 0.00 0.00 0.00 0.01 0.03 0.00 0.00 0.00 0.01 0.01 0.02 0.05 0.02 0.01 0.02 0.03 0.04 0.07 0.07 0.08 0.09 0.14 0.12 0.12 0.11 0.06 0.04 0.01 0.01 0.02 0.02 0.03 0.04 0.06 0.08 0.08 0.08 0.10
0.16 0.23 0.29 0.23 0.18 0.06 0.00 0.00 0.00 0.02 0.01 0.00 0.00 0.00 0.00 0.02 0.03 0.02 0.01 0.03 0.04 0.04 0.08 0.08 0.10 0.15 0.17 0.11 0.08 0.07 0.03 0.01 0.00 0.00 0.00 0.00 0.00 0.00 0.00 0.01 0.01 0.03 0.04 0.03
0.12 0.18 0.17 0.22 0.27 0.13 0.00 0.00 0.00 0.00 0.00 0.00 0.00 0.00 0.01 0.02 0.03 0.01 0.02 0.04 0.06 0.09 0.08 0.08 0.11 0.13 0.07 0.03 0.01 0.00 0.00 0.00 0.00 0.00 0.00 0.00 0.00 0.00 0.00 0.00 0.00 0.00 0.00 0.00
0.03 0.03 0.06 0.12 0.14 0.04 0.00 0.00 0.00 0.00 0.00 0.00 0.00 0.00 0.00 0.01 0.02 0.02 0.04 0.06 0.07 0.07 0.08 0.06 0.04 0.02 0.00 0.00 0.00 0.00 0.00 0.00 0.00 0.00 0.00 0.00 0.00 0.00 0.00 0.00 0.00 0.00 0.00 0.00
0.01 0.00 0.02 0.04 0.01 0.00 0.00 0.00 0.00 0.00 0.00 0.00 0.00 0.00 0.00 0.01 0.01 0.03 0.05 0.07 0.07 0.05 0.01 0.00 0.00 0.00 0.00 0.00 0.00 0.00 0.00 0.00 0.00 0.00 0.00 0.00 0.00 0.00 0.00 0.00 0.00 0.00 0.00 0.00
0.11 0.07 0.07 0.07 0.04 0.02 0.01 0.00 0.00 0.00 0.00 0.00 0.00 0.00 0.00 0.00 0.01 0.01 0.03 0.02 0.01 0.01 0.00 0.00 0.00 0.00 0.00 0.00 0.00 0.00 0.00 0.00 0.00 0.00 0.00 0.00 0.00 0.00 0.00 0.01 0.02 0.01 0.00 0.00
0.01 0.04 0.06 0.07 0.08 0.05 0.08 0.04 0.02 0.00 0.00 0.00 0.00 0.00 0.00 0.00 0.00 0.00 0.01 0.01 0.01 0.01 0.00 0.00 0.00 0.00 0.00 0.00 0.00 0.00 0.00 0.00 0.00 0.00 0.00 0.00 0.00 0.00 0.00 0.00 0.00 0.01 0.00 0.00

GFSCGP_prec_precacc24_135.txt.gz
Total_Precipitation_Accumulation
0.00 0.00 0.00 0.00 0.00 0.00 0.00 0.00 0.00 0.00 0.00 0.00 0.00 0.00 0.00 0.00 0.00 0.00 0.00 0.00 0.00 0.00 0.00 0.00 0.00 0.00 0.00 0.00 0.00 0.00 0.00 0.00 0.00 0.00 0.00 0.00 0.00 0.00 0.00 0.00 0.00 0.00 0.00 0.01
0.00 0.00 0.00 0.00 0.00 0.00 0.00 0.00 0.00 0.00 0.00 0.00 0.00 0.00 0.00 0.00 0.00 0.00 0.00 0.00 0.00 0.00 0.00 0.00 0.00 0.00 0.00 0.00 0.00 0.00 0.00 0.00 0.00 0.00 0.00 0.00 0.00 0.00 0.00 0.00 0.00 0.00 0.00 0.00
0.00 0.00 0.00 0.00 0.00 0.00 0.00 0.00 0.00 0.00 0.00 0.00 0.00 0.00 0.00 0.00 0.00 0.00 0.00 0.00 0.00 0.00 0.00 0.00 0.00 0.00 0.00 0.00 0.00 0.00 0.00 0.00 0.00 0.00 0.00 0.00 0.00 0.00 0.00 0.00 0.00 0.00 0.00 0.00
0.00 0.00 0.00 0.00 0.00 0.00 0.00 0.00 0.00 0.00 0.00 0.00 0.00 0.01 0.00 0.00 0.00 0.00 0.00 0.01 0.04 0.06 0.00 0.00 0.00 0.00 0.01 0.01 0.00 0.00 0.00 0.00 0.00 0.00 0.00 0.00 0.00 0.00 0.00 0.00 0.00 0.00 0.00 0.00
0.00 0.00 0.00 0.00 0.00 0.00 0.00 0.00 0.00 0.00 0.00 0.00 0.00 0.00 0.00 0.00 0.00 0.01 0.01 0.03 0.09 0.12 0.08 0.05 0.03 0.02 0.02 0.01 0.01 0.01 0.02 0.03 0.04 0.04 0.02 0.01 0.01 0.00 0.00 0.00 0.00 0.00 0.00 0.00
0.00 0.00 0.00 0.00 0.00 0.00 0.00 0.00 0.00 0.00 0.00 0.00 0.00 0.00 0.00 0.01 0.01 0.01 0.05 0.05 0.09 0.12 0.08 0.09 0.10 0.07 0.05 0.02 0.01 0.00 0.01 0.01 0.02 0.04 0.05 0.04 0.03 0.02 0.01 0.00 0.00 0.00 0.00 0.00
0.00 0.00 0.00 0.00 0.00 0.00 0.00 0.00 0.03 0.01 0.00 0.00 0.00 0.00 0.00 0.03 0.01 0.03 0.09 0.33 0.33 0.25 0.20 0.13 0.09 0.07 0.08 0.09 0.09 0.07 0.05 0.03 0.01 0.00 0.01 0.02 0.03 0.04 0.04 0.03 0.01 0.01 0.01 0.00
0.00 0.00 0.00 0.00 0.00 0.00 0.00 0.00 0.02 0.01 0.00 0.00 0.00 0.00 0.01 0.07 0.13 0.25 0.39 0.43 0.54 0.49 0.44 0.30 0.18 0.11 0.07 0.06 0.05 0.04 0.05 0.06 0.04 0.03 0.02 0.01 0.01 0.00 0.01 0.01 0.01 0.02 0.02 0.01
0.00 0.00 0.00 0.00 0.00 0.00 0.00 0.00 0.01 0.06 0.04 0.02 0.00 0.00 0.05 0.17 0.63 0.64 0.74 0.57 0.46 0.48 0.43 0.38 0.30 0.17 0.09 0.06 0.03 0.02 0.01 0.00 0.00 0.00 0.00 0.00 0.00 0.00 0.00 0.01 0.01 0.01 0.02 0.01
0.00 0.00 0.00 0.00 0.00 0.00 0.00 0.00 0.02 0.09 0.06 0.02 0.00 0.01 0.14 0.30 0.50 0.59 0.67 0.64 0.59 0.44 0.40 0.28 0.18 0.13 0.08 0.05 0.03 0.01 0.00 0.00 0.00 0.00 0.00 0.00 0.00 0.00 0.00 0.00 0.00 0.01 0.01 0.01
0.01 0.02 0.00 0.00 0.00 0.00 0.00 0.01 0.01 0.05 0.03 0.03 0.02 0.05 0.11 0.12 0.14 0.23 0.36 0.40 0.32 0.19 0.11 0.12 0.10 0.09 0.08 0.06 0.04 0.03 0.02 0.02 0.01 0.00 0.00 0.00 0.00 0.00 0.00 0.00 0.01 0.01 0.01 0.01
0.06 0.09 0.03 0.00 0.00 0.01 0.02 0.02 0.06 0.13 0.10 0.11 0.16 0.18 0.08 0.01 0.04 0.03 0.00 0.02 0.05 0.04 0.04 0.03 0.02 0.01 0.01 0.01 0.01 0.01 0.00 0.00 0.00 0.00 0.00 0.00 0.00 0.00 0.00 0.00 0.00 0.00 0.00 0.00
0.22 0.28 0.21 0.15 0.11 0.05 0.03 0.01 0.04 0.12 0.22 0.16 0.19 0.06 0.03 0.03 0.02 0.01 0.00 0.00 0.00 0.00 0.00 0.00 0.00 0.00 0.00 0.00 0.00 0.01 0.01 0.01 0.00 0.00 0.00 0.00 0.00 0.00 0.00 0.00 0.00 0.00 0.00 0.00
0.20 0.17 0.14 0.10 0.08 0.09 0.11 0.07 0.11 0.23 0.35 0.17 0.08 0.02 0.02 0.05 0.03 0.02 0.02 0.02 0.01 0.00 0.00 0.00 0.00 0.00 0.00 0.00 0.00 0.00 0.00 0.00 0.00 0.00 0.00 0.00 0.00 0.00 0.00 0.00 0.00 0.00 0.00 0.00
0.22 0.16 0.07 0.04 0.06 0.10 0.11 0.09 0.08 0.19 0.20 0.27 0.09 0.05 0.01 0.01 0.06 0.04 0.04 0.05 0.03 0.00 0.00 0.00 0.00 0.00 0.00 0.00 0.00 0.00 0.00 0.00 0.00 0.00 0.00 0.00 0.00 0.00 0.00 0.00 0.00 0.00 0.00 0.00
0.14 0.17 0.11 0.04 0.01 0.03 0.07 0.04 0.01 0.04 0.06 0.10 0.07 0.06 0.01 0.00 0.02 0.02 0.02 0.02 0.01 0.00 0.00 0.00 0.00 0.00 0.01 0.01 0.01 0.01 0.01 0.01 0.00 0.00 0.00 0.00 0.00 0.00 0.00 0.00 0.00 0.00 0.00 0.00
0.12 0.10 0.13 0.13 0.04 0.23 0.27 0.01 0.00 0.00 0.00 0.00 0.00 0.01 0.00 0.00 0.00 0.00 0.01 0.02 0.01 0.00 0.01 0.01 0.01 0.01 0.02 0.03 0.03 0.03 0.03 0.01 0.00 0.00 0.00 0.00 0.01 0.01 0.01 0.01 0.01 0.01 0.01 0.01
0.14 0.20 0.36 0.27 0.19 0.51 0.12 0.00 0.00 0.00 0.00 0.00 0.00 0.00 0.00 0.00 0.00 0.00 0.00 0.01 0.01 0.01 0.01 0.02 0.02 0.02 0.03 0.04 0.04 0.04 0.04 0.03 0.00 0.01 0.01 0.01 0.02 0.02 0.03 0.02 0.02 0.03 0.03 0.03
0.03 0.12 0.36 0.34 0.24 0.12 0.01 0.00 0.00 0.01 0.01 0.00 0.00 0.00 0.00 0.00 0.00 0.03 0.00 0.05 0.04 0.02 0.03 0.03 0.04 0.04 0.04 0.04 0.05 0.05 0.07 0.07 0.01 0.01 0.01 0.01 0.01 0.01 0.01 0.01 0.02 0.04 0.03 0.03
0.11 0.15 0.29 0.29 0.24 0.12 0.00 0.00 0.00 0.01 0.03 0.00 0.00 0.00 0.00 0.00 0.01 0.04 0.01 0.01 0.02 0.03 0.04 0.05 0.04 0.04 0.03 0.06 0.05 0.07 0.08 0.04 0.03 0.01 0.00 0.00 0.00 0.00 0.00 0.00 0.01 0.01 0.02 0.03
0.17 0.23 0.30 0.25 0.22 0.09 0.00 0.00 0.00 0.03 0.01 0.00 0.00 0.00 0.00 0.01 0.01 0.02 0.01 0.03 0.03 0.03 0.05 0.05 0.05 0.07 0.09 0.06 0.04 0.03 0.01 0.01 0.00 0.00 0.00 0.00 0.00 0.00 0.00 0.00 0.00 0.00 0.00 0.01
0.15 0.26 0.21 0.24 0.30 0.14 0.00 0.00 0.01 0.00 0.00 0.00 0.00 0.00 0.00 0.01 0.02 0.01 0.02 0.03 0.04 0.05 0.04 0.04 0.05 0.08 0.06 0.02 0.00 0.00 0.00 0.00 0.00 0.00 0.00 0.00 0.00 0.00 0.00 0.00 0.00 0.00 0.00 0.00
0.02 0.03 0.08 0.17 0.16 0.05 0.00 0.00 0.00 0.00 0.00 0.00 0.00 0.00 0.00 0.00 0.01 0.02 0.03 0.04 0.04 0.03 0.03 0.03 0.03 0.03 0.02 0.01 0.00 0.00 0.00 0.00 0.00 0.00 0.00 0.00 0.00 0.00 0.00 0.00 0.00 0.00 0.00 0.00
0.01 0.01 0.02 0.04 0.00 0.00 0.00 0.00 0.00 0.00 0.00 0.00 0.00 0.00 0.00 0.00 0.01 0.02 0.03 0.04 0.04 0.02 0.00 0.00 0.00 0.00 0.00 0.00 0.00 0.00 0.00 0.00 0.00 0.00 0.00 0.00 0.00 0.00 0.00 0.00 0.00 0.00 0.00 0.00
0.11 0.12 0.16 0.15 0.06 0.03 0.02 0.01 0.02 0.02 0.00 0.00 0.00 0.00 0.00 0.00 0.01 0.01 0.02 0.02 0.01 0.01 0.00 0.00 0.00 0.00 0.00 0.00 0.00 0.00 0.00 0.00 0.00 0.00 0.00 0.00 0.00 0.00 0.00 0.01 0.02 0.00 0.00 0.00
0.01 0.04 0.07 0.09 0.12 0.09 0.12 0.07 0.06 0.07 0.02 0.01 0.00 0.00 0.00 0.00 0.00 0.00 0.01 0.01 0.01 0.01 0.00 0.00 0.00 0.00 0.00 0.00 0.00 0.00 0.00 0.00 0.00 0.00 0.00 0.00 0.00 0.00 0.00 0.00 0.00 0.00 0.00 0.00

GFSCGP_prec_precacc24_138.txt.gz
Total_Precipitation_Accumulation
0.00 0.00 0.00 0.00 0.00 0.00 0.00 0.00 0.00 0.00 0.00 0.00 0.00 0.00 0.00 0.00 0.00 0.00 0.00 0.00 0.00 0.00 0.00 0.00 0.00 0.00 0.00 0.00 0.00 0.00 0.00 0.00 0.00 0.00 0.00 0.00 0.00 0.00 0.00 0.00 0.00 0.00 0.00 0.00
0.00 0.00 0.00 0.00 0.00 0.00 0.00 0.00 0.00 0.00 0.00 0.00 0.00 0.00 0.00 0.00 0.00 0.00 0.00 0.00 0.00 0.00 0.00 0.00 0.00 0.00 0.00 0.00 0.00 0.00 0.00 0.00 0.00 0.00 0.00 0.00 0.00 0.00 0.00 0.00 0.00 0.00 0.00 0.00
0.00 0.00 0.00 0.00 0.00 0.00 0.00 0.00 0.00 0.00 0.00 0.00 0.00 0.00 0.00 0.00 0.00 0.00 0.00 0.00 0.00 0.00 0.00 0.00 0.00 0.00 0.00 0.00 0.00 0.00 0.00 0.00 0.00 0.00 0.00 0.00 0.00 0.00 0.00 0.00 0.00 0.00 0.00 0.00
0.00 0.00 0.00 0.00 0.00 0.00 0.00 0.00 0.00 0.00 0.00 0.00 0.00 0.00 0.00 0.00 0.00 0.00 0.00 0.00 0.00 0.00 0.00 0.00 0.00 0.00 0.01 0.01 0.00 0.00 0.00 0.00 0.00 0.00 0.00 0.00 0.00 0.00 0.00 0.00 0.00 0.00 0.00 0.00
0.00 0.00 0.00 0.00 0.00 0.00 0.00 0.00 0.00 0.00 0.00 0.00 0.00 0.00 0.00 0.00 0.00 0.01 0.01 0.01 0.01 0.01 0.04 0.05 0.03 0.02 0.02 0.01 0.01 0.01 0.02 0.03 0.04 0.04 0.02 0.01 0.01 0.00 0.00 0.00 0.00 0.00 0.00 0.00
0.00 0.00 0.00 0.00 0.00 0.00 0.00 0.00 0.00 0.00 0.00 0.00 0.00 0.00 0.00 0.01 0.01 0.01 0.02 0.03 0.03 0.06 0.05 0.09 0.10 0.07 0.05 0.02 0.01 0.00 0.01 0.01 0.02 0.04 0.05 0.04 0.03 0.02 0.01 0.00 0.00 0.00 0.00 0.00
0.00 0.00 0.00 0.00 0.00 0.00 0.00 0.00 0.03 0.01 0.00 0.00 0.00 0.00 0.00 0.02 0.01 0.01 0.03 0.08 0.18 0.24 0.19 0.13 0.09 0.07 0.08 0.09 0.09 0.07 0.05 0.03 0.01 0.00 0.01 0.02 0.03 0.04 0.04 0.03 0.01 0.01 0.01 0.00
0.00 0.00 0.00 0.00 0.00 0.00 0.00 0.00 0.02 0.01 0.00 0.00 0.00 0.00 0.00 0.02 0.01 0.06 0.16 0.22 0.27 0.43 0.43 0.30 0.18 0.11 0.07 0.06 0.05 0.04 0.05 0.06 0.04 0.03 0.02 0.01 0.01 0.00 0.01 0.01 0.01 0.02 0.02 0.01
0.00 0.00 0.00 0.00 0.00 0.00 0.00 0.00 0.01 0.05 0.05 0.03 0.00 0.00 0.02 0.01 0.03 0.07 0.16 0.23 0.26 0.35 0.40 0.36 0.29 0.16 0.09 0.06 0.03 0.02 0.01 0.00 0.00 0.00 0.00 0.00 0.00 0.00 0.00 0.01 0.01 0.01 0.02 0.01
0.00 0.00 0.00 0.00 0.00 0.00 0.00 0.00 0.02 0.08 0.06 0.01 0.00 0.00 0.01 0.01 0.05 0.09 0.15 0.17 0.24 0.30 0.32 0.24 0.17 0.12 0.08 0.05 0.03 0.01 0.00 0.00 0.00 0.00 0.00 0.00 0.00 0.00 0.00 0.00 0.00 0.00 0.00 0.00
0.00 0.01 0.00 0.00 0.00 0.00 0.00 0.01 0.01 0.05 0.02 0.01 0.01 0.00 0.00 0.00 0.00 0.02 0.08 0.15 0.21 0.18 0.10 0.10 0.10 0.09 0.08 0.06 0.04 0.03 0.02 0.02 0.01 0.00 0.00 0.00 0.00 0.00 0.00 0.00 0.00 0.00 0.00 0.00
0.03 0.07 0.02 0.00 0.00 0.01 0.02 0.02 0.05 0.12 0.09 0.06 0.07 0.03 0.00 0.00 0.01 0.00 0.00 0.00 0.03 0.04 0.04 0.03 0.02 0.01 0.01 0.01 0.01 0.01 0.00 0.00 0.00 0.00 0.00 0.00 0.00 0.00 0.00 0.00 0.00 0.00 0.00 0.00
0.13 0.15 0.12 0.10 0.09 0.05 0.03 0.01 0.04 0.10 0.19 0.15 0.18 0.04 0.00 0.01 0.01 0.00 0.00 0.00 0.00 0.00 0.00 0.00 0.00 0.00 0.00 0.00 0.00 0.01 0.01 0.01 0.00 0.00 0.00 0.00 0.00 0.00 0.00 0.00 0.00 0.00 0.00 0.00
0.23 0.12 0.08 0.07 0.07 0.09 0.11 0.07 0.11 0.22 0.35 0.17 0.08 0.02 0.02 0.03 0.04 0.02 0.02 0.03 0.01 0.00 0.00 0.00 0.00 0.00 0.00 0.00 0.00 0.00 0.00 0.00 0.00 0.00 0.00 0.00 0.00 0.00 0.00 0.00 0.00 0.00 0.00 0.00
0.45 0.42 0.24 0.07 0.08 0.11 0.12 0.09 0.08 0.19 0.21 0.28 0.09 0.05 0.01 0.01 0.07 0.06 0.05 0.07 0.06 0.02 0.01 0.00 0.01 0.00 0.00 0.00 0.00 0.00 0.00 0.00 0.00 0.00 0.00 0.00 0.00 0.00 0.00 0.00 0.00 0.00 0.00 0.00
0.28 0.38 0.33 0.19 0.18 0.13 0.11 0.05 0.03 0.09 0.09 0.13 0.08 0.07 0.01 0.00 0.02 0.04 0.06 0.07 0.06 0.02 0.01 0.01 0.00 0.00 0.01 0.01 0.01 0.01 0.01 0.01 0.00 0.00 0.00 0.00 0.00 0.00 0.00 0.00 0.00 0.00 0.00 0.00
0.14 0.11 0.18 0.17 0.15 0.34 0.32 0.02 0.01 0.02 0.02 0.02 0.02 0.01 0.00 0.00 0.00 0.00 0.01 0.04 0.02 0.02 0.01 0.01 0.01 0.01 0.02 0.02 0.02 0.02 0.02 0.01 0.00 0.00 0.00 0.00 0.00 0.00 0.00 0.00 0.00 0.00 0.00 0.00
0.15 0.20 0.37 0.28 0.19 0.53 0.15 0.00 0.00 0.00 0.00 0.00 0.00 0.00 0.00 0.00 0.00 0.00 0.00 0.01 0.01 0.01 0.02 0.02 0.01 0.01 0.02 0.03 0.03 0.03 0.03 0.02 0.00 0.00 0.00 0.00 0.00 0.00 0.00 0.00 0.00 0.00 0.01 0.02
0.03 0.11 0.35 0.34 0.24 0.13 0.02 0.00 0.00 0.01 0.01 0.00 0.00 0.00 0.00 0.00 0.00 0.02 0.00 0.04 0.04 0.02 0.03 0.03 0.04 0.03 0.04 0.03 0.04 0.04 0.05 0.04 0.00 0.00 0.00 0.00 0.00 0.00 0.00 0.00 0.00 0.00 0.00 0.00
0.11 0.15 0.29 0.29 0.24 0.12 0.00 0.00 0.00 0.01 0.04 0.00 0.00 0.00 0.00 0.00 0.01 0.04 0.01 0.01 0.02 0.03 0.05 0.06 0.05 0.04 0.03 0.04 0.02 0.03 0.03 0.01 0.00 0.00 0.00 0.00 0.00 0.00 0.00 0.00 0.00 0.00 0.00 0.00
0.17 0.23 0.30 0.25 0.24 0.09 0.00 0.00 0.00 0.03 0.01 0.00 0.00 0.00 0.00 0.00 0.01 0.01 0.00 0.02 0.03 0.03 0.04 0.04 0.05 0.05 0.05 0.02 0.01 0.00 0.00 0.00 0.00 0.00 0.00 0.00 0.00 0.00 0.00 0.00 0.00 0.01 0.01 0.01
0.15 0.26 0.22 0.26 0.32 0.15 0.00 0.00 0.01 0.00 0.00 0.00 0.00 0.00 0.00 0.01 0.01 0.01 0.01 0.03 0.04 0.04 0.03 0.03 0.04 0.05 0.03 0.00 0.00 0.00 0.00 0.00 0.00 0.00 0.00 0.00 0.00 0.00 0.00 0.00 0.01 0.01 0.01 0.00
0.02 0.03 0.08 0.17 0.18 0.04 0.00 0.00 0.00 0.00 0.00 0.00 0.00 0.00 0.00 0.00 0.01 0.01 0.02 0.03 0.03 0.02 0.02 0.02 0.02 0.02 0.02 0.01 0.00 0.00 0.00 0.00 0.00 0.00 0.00 0.00 0.00 0.00 0.00 0.00 0.00 0.00 0.00 0.00
0.01 0.01 0.02 0.04 0.00 0.00 0.00 0.00 0.00 0.00 0.00 0.00 0.00 0.00 0.00 0.00 0.01 0.02 0.02 0.03 0.02 0.01 0.00 0.00 0.00 0.00 0.01 0.01 0.00 0.00 0.00 0.00 0.00 0.00 0.00 0.00 0.00 0.00 0.00 0.00 0.00 0.00 0.00 0.00
0.11 0.12 0.16 0.15 0.06 0.03 0.01 0.01 0.03 0.04 0.02 0.00 0.00 0.00 0.00 0.00 0.01 0.01 0.01 0.02 0.01 0.01 0.00 0.00 0.00 0.00 0.00 0.00 0.00 0.00 0.00 0.00 0.00 0.00 0.00 0.00 0.00 0.00 0.00 0.00 0.01 0.00 0.00 0.00
0.01 0.04 0.07 0.09 0.12 0.09 0.11 0.07 0.07 0.07 0.02 0.01 0.00 0.00 0.00 0.00 0.00 0.00 0.01 0.01 0.01 0.01 0.00 0.00 0.00 0.00 0.00 0.00 0.00 0.00 0.00 0.00 0.00 0.00 0.00 0.00 0.00 0.00 0.00 0.00 0.00 0.00 0.00 0.00

GFSCGP_prec_precacc24_141.txt.gz
Total_Precipitation_Accumulation
0.00 0.00 0.00 0.00 0.00 0.00 0.00 0.00 0.00 0.00 0.00 0.00 0.00 0.00 0.00 0.00 0.00 0.00 0.00 0.00 0.00 0.00 0.00 0.00 0.00 0.00 0.00 0.00 0.00 0.00 0.00 0.00 0.00 0.00 0.00 0.00 0.00 0.00 0.00 0.00 0.00 0.00 0.00 0.00
0.00 0.00 0.00 0.00 0.00 0.00 0.00 0.00 0.00 0.00 0.00 0.00 0.00 0.00 0.00 0.00 0.00 0.00 0.00 0.00 0.00 0.00 0.00 0.00 0.00 0.00 0.00 0.00 0.00 0.00 0.00 0.00 0.00 0.00 0.00 0.00 0.00 0.00 0.00 0.00 0.00 0.00 0.00 0.00
0.00 0.00 0.00 0.00 0.00 0.00 0.00 0.00 0.00 0.00 0.00 0.00 0.00 0.00 0.00 0.00 0.00 0.00 0.00 0.00 0.00 0.00 0.00 0.00 0.00 0.00 0.00 0.00 0.00 0.00 0.00 0.00 0.00 0.00 0.00 0.00 0.00 0.00 0.00 0.00 0.00 0.00 0.00 0.00
0.00 0.00 0.00 0.00 0.00 0.00 0.00 0.00 0.00 0.00 0.00 0.00 0.00 0.00 0.00 0.00 0.00 0.00 0.00 0.00 0.00 0.00 0.00 0.00 0.00 0.00 0.00 0.01 0.00 0.00 0.00 0.00 0.00 0.00 0.00 0.00 0.00 0.00 0.00 0.00 0.00 0.00 0.00 0.00
0.00 0.00 0.00 0.00 0.00 0.00 0.00 0.00 0.00 0.00 0.00 0.00 0.00 0.00 0.00 0.00 0.00 0.01 0.01 0.01 0.01 0.01 0.00 0.00 0.01 0.01 0.01 0.00 0.01 0.01 0.02 0.03 0.04 0.04 0.02 0.01 0.01 0.00 0.00 0.00 0.00 0.00 0.00 0.00
0.00 0.00 0.00 0.00 0.00 0.00 0.00 0.00 0.00 0.00 0.00 0.00 0.00 0.00 0.00 0.00 0.01 0.01 0.02 0.02 0.03 0.04 0.04 0.04 0.03 0.02 0.02 0.01 0.01 0.00 0.01 0.01 0.02 0.04 0.05 0.04 0.03 0.02 0.01 0.00 0.00 0.00 0.00 0.00
0.00 0.00 0.00 0.00 0.00 0.00 0.00 0.00 0.02 0.01 0.00 0.00 0.00 0.00 0.00 0.00 0.00 0.00 0.00 0.02 0.05 0.07 0.08 0.08 0.08 0.06 0.06 0.07 0.08 0.07 0.05 0.03 0.01 0.00 0.01 0.02 0.03 0.04 0.04 0.03 0.01 0.01 0.01 0.00
0.00 0.00 0.00 0.00 0.00 0.00 0.00 0.00 0.02 0.00 0.00 0.00 0.00 0.00 0.00 0.00 0.00 0.00 0.00 0.01 0.04 0.08 0.12 0.13 0.13 0.10 0.07 0.05 0.04 0.04 0.05 0.06 0.04 0.03 0.02 0.01 0.01 0.00 0.01 0.01 0.01 0.02 0.02 0.01
0.00 0.00 0.00 0.00 0.00 0.00 0.00 0.00 0.01 0.05 0.05 0.03 0.00 0.00 0.00 0.00 0.00 0.00 0.00 0.00 0.01 0.03 0.05 0.05 0.12 0.13 0.09 0.06 0.03 0.02 0.01 0.00 0.00 0.00 0.00 0.00 0.00 0.00 0.00 0.01 0.01 0.01 0.02 0.01
0.00 0.00 0.00 0.00 0.00 0.00 0.00 0.00 0.02 0.09 0.09 0.02 0.00 0.00 0.00 0.00 0.01 0.01 0.01 0.01 0.01 0.01 0.01 0.01 0.01 0.05 0.05 0.04 0.03 0.01 0.00 0.00 0.00 0.00 0.00 0.00 0.00 0.00 0.00 0.00 0.00 0.00 0.00 0.00
0.00 0.00 0.00 0.00 0.00 0.00 0.00 0.01 0.01 0.05 0.03 0.01 0.00 0.00 0.00 0.00 0.00 0.00 0.00 0.00 0.00 0.00 0.00 0.00 0.01 0.02 0.03 0.03 0.03 0.02 0.02 0.02 0.01 0.00 0.00 0.00 0.00 0.00 0.00 0.00 0.00 0.00 0.00 0.00
0.00 0.03 0.01 0.00 0.00 0.01 0.02 0.02 0.05 0.12 0.09 0.06 0.07 0.03 0.00 0.00 0.00 0.00 0.00 0.00 0.00 0.00 0.00 0.00 0.00 0.00 0.01 0.01 0.01 0.01 0.00 0.00 0.00 0.00 0.00 0.00 0.00 0.00 0.00 0.00 0.00 0.00 0.00 0.00
0.10 0.15 0.12 0.07 0.06 0.03 0.01 0.01 0.04 0.10 0.18 0.13 0.18 0.04 0.00 0.00 0.00 0.00 0.00 0.00 0.00 0.00 0.00 0.00 0.00 0.00 0.00 0.00 0.00 0.01 0.01 0.01 0.00 0.00 0.00 0.00 0.00 0.00 0.00 0.00 0.00 0.00 0.00 0.00
0.26 0.29 0.30 0.19 0.08 0.08 0.10 0.06 0.11 0.22 0.35 0.18 0.08 0.02 0.00 0.01 0.04 0.02 0.02 0.03 0.01 0.00 0.00 0.00 0.00 0.00 0.00 0.00 0.00 0.00 0.00 0.00 0.00 0.00 0.00 0.00 0.00 0.00 0.00 0.00 0.00 0.00 0.00 0.00
0.50 0.61 0.46 0.27 0.17 0.14 0.12 0.08 0.07 0.19 0.22 0.30 0.10 0.05 0.01 0.01 0.08 0.06 0.05 0.07 0.06 0.02 0.01 0.01 0.01 0.01 0.01 0.01 0.01 0.01 0.00 0.00 0.00 0.00 0.00 0.00 0.00 0.00 0.00 0.00 0.00 0.00 0.00 0.00
0.33 0.49 0.47 0.30 0.35 0.27 0.16 0.06 0.04 0.13 0.16 0.24 0.17 0.09 0.01 0.01 0.03 0.05 0.06 0.07 0.06 0.05 0.06 0.08 0.11 0.12 0.09 0.05 0.02 0.01 0.00 0.00 0.00 0.00 0.00 0.00 0.00 0.00 0.00 0.00 0.00 0.00 0.00 0.00
0.18 0.15 0.22 0.20 0.21 0.31 0.24 0.03 0.03 0.05 0.09 0.13 0.19 0.10 0.04 0.03 0.03 0.00 0.01 0.04 0.02 0.02 0.02 0.01 0.01 0.01 0.01 0.01 0.01 0.02 0.03 0.01 0.00 0.00 0.00 0.00 0.00 0.00 0.00 0.00 0.00 0.00 0.00 0.00
0.16 0.21 0.40 0.29 0.20 0.50 0.13 0.01 0.01 0.02 0.02 0.02 0.02 0.01 0.02 0.02 0.01 0.01 0.00 0.01 0.01 0.01 0.02 0.01 0.01 0.01 0.02 0.04 0.06 0.09 0.08 0.03 0.00 0.00 0.00 0.00 0.00 0.00 0.00 0.00 0.00 0.00 0.00 0.01
0.03 0.12 0.36 0.34 0.22 0.12 0.02 0.00 0.00 0.01 0.01 0.00 0.00 0.00 0.00 0.01 0.01 0.02 0.00 0.04 0.03 0.02 0.02 0.02 0.04 0.03 0.04 0.06 0.09 0.07 0.04 0.03 0.00 0.00 0.00 0.00 0.00 0.00 0.00 0.00 0.00 0.00 0.00 0.00
0.11 0.15 0.30 0.28 0.23 0.11 0.00 0.00 0.00 0.01 0.04 0.00 0.00 0.00 0.00 0.00 0.01 0.03 0.01 0.01 0.02 0.03 0.04 0.06 0.05 0.04 0.03 0.04 0.02 0.02 0.02 0.01 0.00 0.00 0.00 0.00 0.00 0.00 0.00 0.00 0.00 0.00 0.00 0.00
0.17 0.22 0.31 0.26 0.24 0.09 0.00 0.00 0.00 0.03 0.01 0.00 0.00 0.00 0.00 0.00 0.01 0.01 0.00 0.01 0.02 0.02 0.03 0.04 0.04 0.04 0.04 0.02 0.00 0.00 0.00 0.00 0.00 0.00 0.00 0.00 0.00 0.00 0.00 0.00 0.00 0.01 0.01 0.00
0.15 0.25 0.22 0.27 0.34 0.15 0.00 0.00 0.01 0.00 0.00 0.00 0.00 0.00 0.00 0.00 0.01 0.00 0.01 0.01 0.02 0.03 0.03 0.02 0.03 0.04 0.03 0.00 0.00 0.00 0.00 0.00 0.00 0.00 0.00 0.00 0.00 0.00 0.00 0.01 0.02 0.01 0.01 0.00
0.02 0.03 0.08 0.17 0.18 0.04 0.00 0.00 0.00 0.00 0.00 0.00 0.00 0.00 0.00 0.00 0.01 0.01 0.01 0.02 0.02 0.01 0.02 0.02 0.02 0.02 0.02 0.01 0.00 0.00 0.00 0.00 0.00 0.00 0.00 0.00 0.00 0.00 0.00 0.00 0.01 0.01 0.00 0.00
0.01 0.01 0.02 0.04 0.00 0.00 0.00 0.00 0.00 0.00 0.00 0.00 0.00 0.00 0.00 0.00 0.00 0.01 0.01 0.02 0.02 0.01 0.00 0.00 0.00 0.00 0.01 0.01 0.00 0.00 0.01 0.00 0.00 0.00 0.00 0.00 0.00 0.00 0.00 0.00 0.00 0.00 0.00 0.00
0.11 0.12 0.16 0.14 0.05 0.03 0.01 0.01 0.03 0.04 0.02 0.00 0.00 0.00 0.00 0.00 0.01 0.00 0.01 0.02 0.01 0.01 0.00 0.00 0.00 0.00 0.00 0.01 0.01 0.01 0.01 0.00 0.00 0.00 0.00 0.00 0.00 0.00 0.00 0.00 0.00 0.00 0.00 0.00
0.01 0.04 0.07 0.09 0.12 0.09 0.11 0.07 0.07 0.07 0.02 0.01 0.00 0.00 0.00 0.00 0.00 0.00 0.01 0.01 0.01 0.01 0.00 0.00 0.00 0.00 0.01 0.02 0.02 0.01 0.00 0.00 0.00 0.00 0.00 0.00 0.00 0.00 0.00 0.00 0.00 0.00 0.00 0.00

GFSCGP_prec_precacc24_144.txt.gz
Total_Precipitation_Accumulation
0.00 0.00 0.00 0.00 0.00 0.00 0.00 0.00 0.00 0.00 0.00 0.00 0.00 0.00 0.00 0.00 0.00 0.00 0.00 0.00 0.00 0.00 0.00 0.00 0.00 0.00 0.00 0.00 0.00 0.00 0.00 0.00 0.00 0.00 0.00 0.00 0.00 0.00 0.00 0.00 0.00 0.00 0.00 0.00
0.00 0.00 0.00 0.00 0.00 0.00 0.00 0.00 0.00 0.00 0.00 0.00 0.00 0.00 0.00 0.00 0.00 0.00 0.00 0.00 0.00 0.00 0.00 0.00 0.00 0.00 0.00 0.00 0.00 0.00 0.00 0.00 0.00 0.00 0.00 0.00 0.00 0.00 0.00 0.00 0.00 0.00 0.00 0.00
0.00 0.00 0.00 0.00 0.00 0.00 0.00 0.00 0.00 0.00 0.00 0.00 0.00 0.00 0.00 0.00 0.00 0.00 0.00 0.00 0.00 0.00 0.00 0.00 0.00 0.00 0.00 0.00 0.00 0.00 0.00 0.00 0.00 0.00 0.00 0.00 0.00 0.00 0.00 0.00 0.00 0.00 0.00 0.00
0.00 0.00 0.00 0.00 0.00 0.00 0.00 0.00 0.00 0.00 0.00 0.00 0.00 0.00 0.00 0.00 0.00 0.00 0.00 0.00 0.00 0.00 0.00 0.00 0.00 0.00 0.00 0.00 0.00 0.00 0.00 0.00 0.00 0.00 0.00 0.00 0.00 0.00 0.00 0.00 0.00 0.00 0.00 0.00
0.00 0.00 0.00 0.00 0.00 0.00 0.00 0.00 0.00 0.00 0.00 0.00 0.00 0.00 0.00 0.00 0.00 0.00 0.00 0.00 0.00 0.00 0.00 0.00 0.00 0.00 0.00 0.00 0.00 0.00 0.00 0.00 0.04 0.04 0.02 0.01 0.01 0.00 0.00 0.00 0.00 0.00 0.00 0.00
0.00 0.00 0.00 0.00 0.00 0.00 0.00 0.00 0.00 0.00 0.00 0.00 0.00 0.00 0.00 0.00 0.00 0.00 0.00 0.00 0.00 0.00 0.00 0.00 0.00 0.00 0.01 0.01 0.00 0.00 0.00 0.00 0.01 0.03 0.05 0.04 0.03 0.02 0.01 0.00 0.00 0.00 0.00 0.00
0.00 0.00 0.00 0.00 0.00 0.00 0.00 0.00 0.00 0.00 0.00 0.00 0.00 0.00 0.00 0.00 0.00 0.00 0.00 0.00 0.00 0.00 0.00 0.00 0.00 0.00 0.01 0.02 0.02 0.02 0.02 0.02 0.01 0.00 0.01 0.02 0.03 0.04 0.04 0.03 0.01 0.01 0.01 0.00
0.00 0.00 0.00 0.00 0.00 0.00 0.00 0.00 0.02 0.00 0.00 0.00 0.00 0.00 0.00 0.00 0.00 0.00 0.00 0.00 0.00 0.00 0.00 0.00 0.00 0.00 0.00 0.01 0.02 0.01 0.01 0.02 0.02 0.02 0.02 0.01 0.01 0.00 0.01 0.01 0.01 0.02 0.02 0.01
0.00 0.00 0.00 0.00 0.00 0.00 0.00 0.00 0.02 0.04 0.06 0.04 0.00 0.00 0.00 0.00 0.00 0.00 0.00 0.00 0.00 0.00 0.00 0.00 0.00 0.00 0.00 0.00 0.02 0.01 0.01 0.00 0.00 0.00 0.00 0.00 0.00 0.00 0.00 0.01 0.01 0.01 0.02 0.01
0.00 0.00 0.00 0.00 0.00 0.00 0.00 0.00 0.01 0.11 0.23 0.06 0.01 0.00 0.00 0.00 0.00 0.00 0.00 0.00 0.00 0.00 0.00 0.00 0.00 0.00 0.00 0.00 0.00 0.00 0.00 0.00 0.00 0.00 0.00 0.00 0.00 0.00 0.00 0.00 0.00 0.00 0.00 0.00
0.00 0.00 0.00 0.00 0.00 0.00 0.00 0.00 0.01 0.05 0.05 0.06 0.03 0.00 0.00 0.00 0.00 0.00 0.00 0.00 0.00 0.00 0.00 0.00 0.00 0.00 0.00 0.00 0.00 0.00 0.00 0.00 0.00 0.00 0.00 0.00 0.00 0.00 0.00 0.00 0.00 0.00 0.00 0.00
0.00 0.03 0.02 0.00 0.00 0.00 0.01 0.01 0.05 0.13 0.14 0.08 0.08 0.05 0.00 0.00 0.00 0.00 0.00 0.00 0.00 0.00 0.00 0.00 0.00 0.00 0.00 0.00 0.00 0.00 0.00 0.00 0.00 0.00 0.00 0.00 0.00 0.00 0.00 0.00 0.00 0.00 0.00 0.00
0.05 0.16 0.19 0.08 0.06 0.03 0.01 0.01 0.04 0.09 0.18 0.21 0.25 0.08 0.00 0.00 0.00 0.00 0.00 0.00 0.00 0.00 0.00 0.00 0.00 0.00 0.00 0.00 0.00 0.00 0.00 0.00 0.00 0.00 0.00 0.00 0.00 0.00 0.00 0.00 0.00 0.00 0.00 0.00
0.21 0.28 0.34 0.26 0.12 0.12 0.12 0.06 0.09 0.16 0.27 0.21 0.10 0.03 0.00 0.00 0.03 0.02 0.02 0.03 0.01 0.00 0.00 0.00 0.00 0.00 0.00 0.00 0.00 0.00 0.00 0.00 0.00 0.00 0.00 0.00 0.00 0.00 0.00 0.00 0.00 0.00 0.00 0.00
0.45 0.59 0.48 0.32 0.22 0.19 0.19 0.11 0.05 0.12 0.17 0.31 0.13 0.06 0.01 0.01 0.08 0.06 0.05 0.07 0.06 0.02 0.01 0.01 0.01 0.01 0.01 0.00 0.01 0.00 0.00 0.00 0.00 0.00 0.00 0.00 0.00 0.00 0.00 0.00 0.00 0.00 0.00 0.00
0.31 0.48 0.47 0.32 0.36 0.29 0.19 0.06 0.04 0.11 0.17 0.27 0.27 0.13 0.03 0.03 0.07 0.06 0.06 0.07 0.06 0.05 0.06 0.08 0.11 0.12 0.10 0.08 0.05 0.02 0.01 0.00 0.00 0.00 0.00 0.00 0.00 0.00 0.00 0.00 0.00 0.00 0.00 0.00
0.20 0.16 0.23 0.20 0.21 0.30 0.20 0.03 0.04 0.06 0.13 0.23 0.28 0.14 0.07 0.11 0.08 0.01 0.01 0.05 0.02 0.02 0.02 0.03 0.02 0.00 0.01 0.01 0.01 0.02 0.02 0.02 0.02 0.02 0.00 0.00 0.00 0.00 0.00 0.00 0.00 0.00 0.00 0.00
0.18 0.25 0.43 0.31 0.20 0.48 0.12 0.01 0.01 0.01 0.03 0.03 0.03 0.02 0.02 0.05 0.06 0.02 0.00 0.02 0.01 0.02 0.02 0.02 0.01 0.01 0.02 0.03 0.05 0.09 0.12 0.16 0.14 0.03 0.00 0.00 0.00 0.00 0.00 0.00 0.00 0.00 0.00 0.01
0.03 0.14 0.41 0.41 0.24 0.12 0.02 0.00 0.00 0.01 0.01 0.00 0.00 0.00 0.00 0.00 0.02 0.04 0.00 0.05 0.04 0.02 0.04 0.04 0.04 0.03 0.03 0.05 0.07 0.09 0.11 0.10 0.06 0.03 0.00 0.00 0.00 0.00 0.00 0.00 0.00 0.00 0.00 0.00
0.12 0.19 0.35 0.31 0.25 0.11 0.00 0.00 0.00 0.01 0.04 0.00 0.00 0.00 0.00 0.00 0.02 0.04 0.01 0.01 0.02 0.03 0.05 0.06 0.06 0.04 0.03 0.03 0.02 0.02 0.05 0.04 0.04 0.02 0.00 0.00 0.00 0.00 0.00 0.00 0.00 0.00 0.00 0.00
0.21 0.31 0.40 0.30 0.26 0.09 0.00 0.00 0.00 0.03 0.01 0.00 0.00 0.00 0.00 0.00 0.01 0.01 0.00 0.02 0.02 0.02 0.03 0.04 0.04 0.05 0.04 0.02 0.02 0.01 0.01 0.01 0.01 0.00 0.00 0.00 0.00 0.00 0.00 0.00 0.00 0.01 0.01 0.00
0.16 0.27 0.24 0.29 0.36 0.16 0.00 0.00 0.01 0.00 0.00 0.00 0.00 0.00 0.00 0.00 0.00 0.00 0.00 0.01 0.01 0.02 0.02 0.02 0.04 0.05 0.04 0.02 0.01 0.00 0.01 0.01 0.00 0.00 0.00 0.00 0.00 0.00 0.00 0.01 0.02 0.01 0.01 0.00
0.03 0.03 0.08 0.17 0.18 0.04 0.00 0.00 0.00 0.00 0.00 0.00 0.00 0.00 0.00 0.00 0.00 0.01 0.01 0.02 0.02 0.01 0.02 0.02 0.02 0.03 0.03 0.01 0.01 0.01 0.01 0.01 0.00 0.00 0.00 0.00 0.00 0.00 0.00 0.00 0.01 0.01 0.00 0.00
0.01 0.01 0.02 0.04 0.00 0.00 0.00 0.00 0.00 0.00 0.00 0.00 0.00 0.00 0.00 0.00 0.00 0.01 0.01 0.02 0.02 0.01 0.00 0.00 0.00 0.00 0.01 0.01 0.00 0.01 0.05 0.01 0.00 0.00 0.00 0.00 0.00 0.00 0.01 0.00 0.00 0.00 0.00 0.00
0.11 0.12 0.16 0.14 0.05 0.03 0.01 0.01 0.03 0.04 0.02 0.00 0.00 0.00 0.00 0.00 0.00 0.00 0.01 0.01 0.01 0.01 0.00 0.00 0.00 0.00 0.00 0.01 0.01 0.03 0.03 0.00 0.00 0.00 0.00 0.00 0.00 0.00 0.01 0.00 0.00 0.00 0.00 0.00
0.01 0.04 0.07 0.09 0.12 0.09 0.11 0.07 0.07 0.07 0.02 0.01 0.00 0.00 0.00 0.00 0.00 0.00 0.01 0.01 0.01 0.01 0.00 0.00 0.00 0.00 0.01 0.02 0.05 0.07 0.03 0.00 0.00 0.00 0.00 0.00 0.00 0.00 0.00 0.00 0.01 0.00 0.00 0.00

GFSCGP_prec_precacc24_147.txt.gz
Total_Precipitation_Accumulation
0.00 0.00 0.00 0.00 0.00 0.00 0.00 0.00 0.00 0.00 0.00 0.00 0.00 0.00 0.00 0.00 0.00 0.00 0.00 0.00 0.00 0.00 0.00 0.00 0.00 0.00 0.00 0.00 0.00 0.00 0.00 0.00 0.00 0.00 0.00 0.00 0.00 0.00 0.00 0.00 0.00 0.00 0.00 0.00
0.00 0.00 0.00 0.00 0.00 0.00 0.00 0.00 0.00 0.00 0.00 0.00 0.00 0.00 0.00 0.00 0.00 0.00 0.00 0.00 0.00 0.00 0.00 0.00 0.00 0.00 0.00 0.00 0.00 0.00 0.00 0.00 0.00 0.00 0.00 0.00 0.00 0.00 0.00 0.00 0.00 0.00 0.00 0.00
0.00 0.00 0.00 0.00 0.00 0.00 0.00 0.00 0.00 0.00 0.00 0.00 0.00 0.00 0.00 0.00 0.00 0.00 0.00 0.00 0.00 0.00 0.00 0.00 0.00 0.00 0.00 0.00 0.00 0.00 0.00 0.00 0.00 0.00 0.00 0.00 0.00 0.00 0.00 0.00 0.00 0.00 0.00 0.00
0.00 0.00 0.00 0.00 0.00 0.00 0.00 0.00 0.00 0.00 0.00 0.00 0.00 0.00 0.00 0.00 0.00 0.00 0.00 0.00 0.00 0.00 0.00 0.00 0.00 0.00 0.00 0.00 0.00 0.00 0.00 0.00 0.00 0.00 0.00 0.00 0.00 0.00 0.00 0.00 0.00 0.00 0.00 0.00
0.00 0.00 0.00 0.00 0.00 0.00 0.00 0.00 0.00 0.00 0.00 0.00 0.00 0.00 0.00 0.00 0.00 0.00 0.00 0.00 0.00 0.00 0.00 0.00 0.00 0.00 0.00 0.00 0.00 0.00 0.00 0.00 0.00 0.00 0.00 0.00 0.00 0.00 0.00 0.00 0.00 0.00 0.00 0.00
0.00 0.00 0.00 0.00 0.00 0.00 0.00 0.00 0.00 0.00 0.00 0.00 0.00 0.00 0.00 0.00 0.00 0.00 0.00 0.00 0.00 0.00 0.00 0.00 0.00 0.00 0.00 0.00 0.00 0.00 0.00 0.00 0.00 0.00 0.00 0.00 0.00 0.02 0.01 0.00 0.00 0.00 0.00 0.00
0.00 0.00 0.00 0.00 0.00 0.00 0.00 0.00 0.00 0.00 0.00 0.00 0.00 0.00 0.00 0.00 0.00 0.00 0.00 0.00 0.00 0.00 0.00 0.00 0.00 0.00 0.00 0.00 0.00 0.00 0.00 0.00 0.01 0.00 0.00 0.00 0.02 0.03 0.04 0.03 0.01 0.01 0.01 0.00
0.00 0.00 0.00 0.00 0.00 0.00 0.00 0.00 0.02 0.01 0.00 0.00 0.00 0.00 0.00 0.00 0.00 0.00 0.00 0.00 0.00 0.00 0.00 0.00 0.00 0.00 0.00 0.00 0.00 0.00 0.00 0.00 0.00 0.00 0.00 0.00 0.00 0.00 0.00 0.01 0.01 0.02 0.02 0.01
0.00 0.00 0.00 0.00 0.00 0.00 0.00 0.00 0.01 0.07 0.14 0.19 0.02 0.00 0.00 0.00 0.00 0.00 0.00 0.00 0.00 0.00 0.00 0.00 0.00 0.00 0.00 0.00 0.00 0.00 0.00 0.00 0.00 0.00 0.00 0.00 0.00 0.00 0.00 0.01 0.01 0.01 0.02 0.01
0.00 0.00 0.00 0.00 0.00 0.00 0.00 0.00 0.00 0.12 0.28 0.12 0.02 0.00 0.00 0.00 0.00 0.00 0.00 0.00 0.00 0.00 0.00 0.00 0.00 0.00 0.00 0.00 0.00 0.00 0.00 0.00 0.00 0.00 0.00 0.00 0.00 0.00 0.00 0.00 0.00 0.00 0.00 0.00
0.00 0.00 0.00 0.00 0.00 0.00 0.00 0.00 0.01 0.05 0.10 0.13 0.07 0.01 0.00 0.00 0.00 0.00 0.00 0.00 0.00 0.00 0.00 0.00 0.00 0.00 0.00 0.00 0.00 0.00 0.00 0.00 0.00 0.00 0.00 0.00 0.00 0.00 0.00 0.00 0.00 0.00 0.00 0.00
0.00 0.04 0.03 0.00 0.00 0.00 0.00 0.00 0.03 0.09 0.13 0.10 0.13 0.08 0.00 0.00 0.00 0.00 0.00 0.00 0.00 0.00 0.00 0.00 0.00 0.00 0.00 0.00 0.00 0.00 0.00 0.00 0.00 0.00 0.00 0.00 0.00 0.00 0.00 0.00 0.00 0.00 0.00 0.00
0.03 0.13 0.15 0.04 0.03 0.02 0.01 0.01 0.01 0.06 0.19 0.26 0.30 0.12 0.00 0.00 0.00 0.00 0.00 0.00 0.00 0.00 0.00 0.00 0.00 0.00 0.00 0.00 0.00 0.00 0.00 0.00 0.00 0.00 0.00 0.00 0.00 0.00 0.00 0.00 0.00 0.00 0.00 0.00
0.20 0.25 0.31 0.23 0.10 0.12 0.12 0.06 0.08 0.16 0.31 0.26 0.13 0.05 0.00 0.00 0.03 0.02 0.02 0.03 0.01 0.00 0.00 0.00 0.00 0.00 0.00 0.00 0.00 0.00 0.00 0.00 0.00 0.00 0.00 0.00 0.00 0.00 0.00 0.00 0.00 0.00 0.00 0.00
0.44 0.58 0.48 0.32 0.22 0.18 0.18 0.11 0.05 0.11 0.17 0.32 0.15 0.08 0.01 0.00 0.07 0.06 0.05 0.07 0.06 0.02 0.01 0.01 0.01 0.01 0.01 0.00 0.01 0.00 0.00 0.00 0.00 0.00 0.00 0.00 0.00 0.00 0.00 0.00 0.00 0.00 0.00 0.00
0.32 0.48 0.47 0.32 0.36 0.28 0.19 0.06 0.04 0.11 0.16 0.25 0.23 0.09 0.02 0.03 0.06 0.06 0.06 0.07 0.06 0.05 0.06 0.08 0.11 0.12 0.10 0.08 0.05 0.03 0.02 0.02 0.01 0.00 0.00 0.00 0.00 0.00 0.00 0.00 0.00 0.00 0.00 0.00
0.20 0.17 0.26 0.22 0.21 0.31 0.21 0.03 0.04 0.06 0.13 0.23 0.28 0.14 0.07 0.11 0.10 0.03 0.02 0.06 0.03 0.02 0.03 0.04 0.03 0.01 0.02 0.03 0.04 0.04 0.02 0.02 0.02 0.02 0.00 0.00 0.00 0.00 0.00 0.00 0.00 0.00 0.00 0.00
0.17 0.23 0.42 0.30 0.19 0.48 0.12 0.01 0.01 0.01 0.03 0.03 0.03 0.02 0.02 0.05 0.06 0.02 0.02 0.05 0.04 0.06 0.05 0.04 0.05 0.08 0.11 0.13 0.12 0.14 0.16 0.17 0.16 0.10 0.07 0.03 0.00 0.00 0.00 0.00 0.00 0.00 0.00 0.01
0.02 0.15 0.42 0.40 0.23 0.12 0.02 0.00 0.00 0.01 0.01 0.00 0.00 0.00 0.00 0.00 0.02 0.03 0.00 0.05 0.04 0.07 0.13 0.11 0.11 0.12 0.16 0.20 0.21 0.21 0.23 0.13 0.14 0.15 0.08 0.03 0.00 0.00 0.00 0.00 0.00 0.00 0.00 0.00
0.02 0.10 0.33 0.31 0.30 0.12 0.00 0.00 0.00 0.01 0.04 0.00 0.00 0.00 0.00 0.00 0.02 0.03 0.01 0.01 0.02 0.03 0.06 0.10 0.11 0.12 0.14 0.18 0.12 0.10 0.14 0.23 0.26 0.14 0.04 0.01 0.00 0.00 0.00 0.00 0.00 0.00 0.00 0.00
0.18 0.28 0.35 0.26 0.29 0.10 0.00 0.00 0.00 0.03 0.01 0.00 0.00 0.00 0.00 0.00 0.01 0.01 0.00 0.02 0.02 0.01 0.03 0.04 0.05 0.06 0.06 0.06 0.09 0.12 0.18 0.28 0.27 0.11 0.02 0.00 0.00 0.00 0.00 0.00 0.00 0.01 0.01 0.00
0.17 0.36 0.38 0.43 0.54 0.20 0.00 0.00 0.01 0.00 0.00 0.00 0.00 0.00 0.00 0.00 0.00 0.00 0.00 0.01 0.01 0.02 0.02 0.02 0.04 0.05 0.04 0.02 0.02 0.03 0.09 0.19 0.16 0.04 0.00 0.00 0.00 0.00 0.00 0.01 0.02 0.01 0.01 0.00
0.07 0.04 0.09 0.18 0.21 0.06 0.00 0.00 0.00 0.00 0.00 0.00 0.00 0.00 0.00 0.00 0.00 0.00 0.01 0.01 0.02 0.01 0.02 0.02 0.02 0.03 0.03 0.02 0.02 0.02 0.05 0.08 0.10 0.05 0.00 0.00 0.00 0.00 0.00 0.00 0.01 0.01 0.00 0.00
0.02 0.01 0.03 0.04 0.00 0.00 0.00 0.00 0.00 0.00 0.00 0.00 0.00 0.00 0.00 0.00 0.00 0.01 0.01 0.01 0.02 0.01 0.00 0.00 0.00 0.00 0.02 0.01 0.01 0.02 0.12 0.12 0.04 0.01 0.00 0.00 0.00 0.00 0.01 0.00 0.00 0.00 0.00 0.00
0.14 0.16 0.16 0.14 0.05 0.03 0.01 0.01 0.03 0.04 0.02 0.00 0.00 0.00 0.00 0.00 0.00 0.00 0.01 0.01 0.01 0.01 0.00 0.00 0.00 0.00 0.01 0.01 0.01 0.05 0.06 0.07 0.08 0.03 0.00 0.00 0.00 0.00 0.01 0.00 0.00 0.00 0.00 0.00
0.02 0.06 0.08 0.09 0.12 0.09 0.11 0.07 0.07 0.07 0.02 0.01 0.00 0.00 0.00 0.00 0.00 0.00 0.01 0.01 0.01 0.01 0.00 0.00 0.00 0.00 0.01 0.02 0.07 0.12 0.09 0.02 0.01 0.00 0.00 0.00 0.00 0.00 0.00 0.01 0.02 0.01 0.00 0.00

GFSCGP_prec_precacc24_150.txt.gz
Total_Precipitation_Accumulation
0.00 0.00 0.00 0.00 0.00 0.00 0.00 0.00 0.00 0.00 0.00 0.00 0.00 0.00 0.00 0.00 0.00 0.00 0.00 0.00 0.00 0.00 0.00 0.00 0.00 0.00 0.00 0.00 0.00 0.00 0.00 0.00 0.00 0.00 0.00 0.00 0.00 0.00 0.00 0.00 0.00 0.00 0.00 0.00
0.00 0.00 0.00 0.00 0.00 0.00 0.00 0.00 0.00 0.00 0.00 0.00 0.00 0.00 0.00 0.00 0.00 0.00 0.00 0.00 0.00 0.00 0.00 0.00 0.00 0.00 0.00 0.00 0.00 0.00 0.00 0.00 0.00 0.00 0.00 0.00 0.00 0.00 0.00 0.00 0.00 0.00 0.00 0.00
0.00 0.00 0.00 0.00 0.00 0.00 0.00 0.00 0.00 0.00 0.00 0.00 0.00 0.00 0.00 0.00 0.00 0.00 0.00 0.00 0.00 0.00 0.00 0.00 0.00 0.00 0.00 0.00 0.00 0.00 0.00 0.00 0.00 0.00 0.00 0.00 0.00 0.00 0.00 0.00 0.00 0.00 0.00 0.00
0.00 0.00 0.00 0.00 0.00 0.00 0.00 0.00 0.00 0.00 0.00 0.00 0.00 0.00 0.00 0.00 0.00 0.00 0.00 0.00 0.00 0.00 0.00 0.00 0.00 0.00 0.00 0.00 0.00 0.00 0.00 0.00 0.00 0.00 0.00 0.00 0.00 0.00 0.00 0.00 0.00 0.00 0.00 0.00
0.00 0.00 0.00 0.00 0.00 0.00 0.00 0.00 0.00 0.00 0.00 0.00 0.00 0.00 0.00 0.00 0.00 0.00 0.00 0.00 0.00 0.00 0.00 0.00 0.00 0.00 0.00 0.00 0.00 0.00 0.00 0.00 0.00 0.00 0.00 0.00 0.00 0.00 0.00 0.00 0.00 0.00 0.00 0.00
0.00 0.00 0.00 0.00 0.00 0.00 0.00 0.00 0.00 0.00 0.00 0.00 0.00 0.00 0.00 0.00 0.00 0.00 0.00 0.00 0.00 0.00 0.00 0.00 0.00 0.00 0.00 0.00 0.00 0.00 0.00 0.00 0.00 0.00 0.00 0.00 0.00 0.00 0.00 0.00 0.00 0.00 0.00 0.00
0.00 0.00 0.00 0.00 0.00 0.00 0.00 0.00 0.00 0.00 0.00 0.00 0.00 0.00 0.00 0.00 0.00 0.00 0.00 0.00 0.00 0.00 0.00 0.00 0.00 0.00 0.00 0.00 0.00 0.00 0.00 0.00 0.00 0.00 0.00 0.00 0.00 0.00 0.00 0.00 0.00 0.01 0.01 0.00
0.00 0.00 0.00 0.00 0.00 0.00 0.00 0.00 0.02 0.02 0.01 0.01 0.00 0.00 0.00 0.00 0.00 0.00 0.00 0.00 0.00 0.00 0.00 0.00 0.00 0.00 0.00 0.00 0.00 0.00 0.00 0.00 0.00 0.00 0.00 0.00 0.00 0.00 0.00 0.00 0.00 0.00 0.01 0.01
0.00 0.00 0.00 0.00 0.00 0.00 0.00 0.00 0.01 0.11 0.18 0.24 0.03 0.00 0.00 0.00 0.00 0.00 0.00 0.00 0.00 0.00 0.00 0.00 0.00 0.00 0.00 0.00 0.00 0.00 0.00 0.00 0.00 0.00 0.00 0.00 0.00 0.00 0.00 0.00 0.00 0.00 0.00 0.01
0.00 0.00 0.00 0.00 0.00 0.00 0.00 0.00 0.01 0.14 0.31 0.13 0.02 0.00 0.00 0.00 0.00 0.00 0.00 0.00 0.00 0.00 0.00 0.00 0.00 0.00 0.00 0.00 0.00 0.00 0.00 0.00 0.00 0.00 0.00 0.00 0.00 0.00 0.00 0.00 0.00 0.00 0.00 0.00
0.00 0.00 0.00 0.00 0.00 0.00 0.00 0.00 0.00 0.04 0.13 0.16 0.08 0.01 0.00 0.00 0.00 0.00 0.00 0.00 0.00 0.00 0.00 0.00 0.00 0.00 0.00 0.00 0.00 0.00 0.00 0.00 0.00 0.00 0.00 0.00 0.00 0.00 0.00 0.00 0.00 0.00 0.00 0.00
0.00 0.04 0.02 0.00 0.00 0.00 0.00 0.00 0.01 0.08 0.14 0.12 0.12 0.08 0.00 0.00 0.00 0.00 0.00 0.00 0.00 0.00 0.00 0.00 0.00 0.00 0.00 0.00 0.00 0.00 0.00 0.00 0.00 0.00 0.00 0.00 0.00 0.00 0.00 0.00 0.00 0.00 0.00 0.00
0.02 0.11 0.13 0.02 0.01 0.01 0.00 0.00 0.00 0.02 0.15 0.22 0.28 0.14 0.00 0.00 0.00 0.00 0.00 0.00 0.00 0.00 0.00 0.00 0.00 0.00 0.00 0.00 0.00 0.00 0.00 0.00 0.00 0.00 0.00 0.00 0.00 0.00 0.00 0.00 0.00 0.00 0.00 0.00
0.18 0.24 0.29 0.22 0.07 0.09 0.08 0.03 0.03 0.10 0.25 0.23 0.13 0.05 0.00 0.00 0.03 0.02 0.02 0.02 0.01 0.00 0.00 0.00 0.00 0.00 0.00 0.00 0.00 0.00 0.00 0.00 0.00 0.00 0.00 0.00 0.00 0.00 0.00 0.00 0.00 0.00 0.00 0.00
0.44 0.58 0.47 0.32 0.21 0.17 0.17 0.10 0.03 0.08 0.14 0.28 0.15 0.08 0.01 0.00 0.06 0.05 0.03 0.06 0.06 0.02 0.01 0.01 0.01 0.01 0.00 0.00 0.00 0.00 0.00 0.00 0.00 0.00 0.00 0.00 0.00 0.00 0.00 0.00 0.00 0.00 0.00 0.00
0.32 0.49 0.47 0.32 0.36 0.27 0.18 0.06 0.04 0.10 0.16 0.24 0.23 0.09 0.02 0.03 0.05 0.04 0.04 0.06 0.06 0.05 0.06 0.08 0.11 0.12 0.10 0.08 0.05 0.03 0.02 0.02 0.02 0.01 0.01 0.00 0.00 0.00 0.00 0.00 0.00 0.00 0.00 0.00
0.18 0.16 0.25 0.21 0.21 0.30 0.19 0.03 0.04 0.06 0.13 0.23 0.28 0.14 0.07 0.11 0.10 0.03 0.02 0.06 0.04 0.03 0.03 0.04 0.03 0.01 0.03 0.04 0.06 0.06 0.06 0.06 0.07 0.06 0.03 0.01 0.00 0.00 0.00 0.00 0.00 0.00 0.00 0.00
0.16 0.21 0.38 0.26 0.15 0.44 0.12 0.01 0.01 0.01 0.03 0.03 0.03 0.02 0.02 0.05 0.06 0.02 0.02 0.05 0.04 0.09 0.10 0.10 0.11 0.11 0.14 0.17 0.21 0.25 0.27 0.31 0.33 0.26 0.19 0.13 0.08 0.05 0.04 0.02 0.01 0.00 0.00 0.01
0.02 0.13 0.40 0.38 0.21 0.11 0.02 0.00 0.00 0.01 0.01 0.00 0.00 0.00 0.00 0.00 0.02 0.03 0.00 0.05 0.04 0.07 0.14 0.18 0.26 0.32 0.36 0.39 0.49 0.61 0.57 0.51 0.43 0.36 0.26 0.19 0.13 0.07 0.03 0.00 0.00 0.00 0.00 0.01
0.03 0.10 0.34 0.29 0.28 0.11 0.00 0.00 0.00 0.01 0.04 0.00 0.00 0.00 0.00 0.00 0.01 0.03 0.01 0.01 0.02 0.03 0.06 0.11 0.18 0.27 0.37 0.46 0.38 0.40 0.50 0.58 0.54 0.40 0.29 0.21 0.09 0.03 0.01 0.00 0.00 0.00 0.00 0.00
0.17 0.29 0.38 0.18 0.21 0.05 0.00 0.00 0.01 0.04 0.01 0.00 0.00 0.00 0.00 0.00 0.01 0.01 0.00 0.01 0.02 0.01 0.03 0.03 0.05 0.07 0.12 0.23 0.32 0.34 0.39 0.51 0.56 0.61 0.31 0.16 0.08 0.04 0.01 0.00 0.00 0.01 0.01 0.00
0.14 0.28 0.32 0.38 0.51 0.21 0.01 0.01 0.01 0.00 0.00 0.00 0.00 0.00 0.00 0.00 0.00 0.00 0.00 0.01 0.01 0.02 0.02 0.02 0.03 0.05 0.04 0.03 0.07 0.10 0.19 0.37 0.51 0.47 0.24 0.10 0.05 0.02 0.01 0.01 0.02 0.01 0.01 0.00
0.07 0.04 0.08 0.16 0.19 0.06 0.01 0.02 0.01 0.00 0.00 0.00 0.00 0.00 0.00 0.00 0.00 0.00 0.00 0.01 0.01 0.01 0.02 0.01 0.02 0.03 0.03 0.02 0.03 0.04 0.09 0.17 0.29 0.28 0.17 0.08 0.03 0.00 0.00 0.00 0.01 0.01 0.00 0.00
0.02 0.03 0.05 0.06 0.00 0.00 0.00 0.00 0.00 0.00 0.00 0.00 0.00 0.00 0.00 0.00 0.00 0.00 0.01 0.01 0.02 0.01 0.00 0.00 0.00 0.00 0.02 0.01 0.01 0.02 0.13 0.21 0.20 0.16 0.12 0.06 0.02 0.00 0.01 0.00 0.00 0.00 0.00 0.00
0.13 0.16 0.18 0.16 0.05 0.03 0.01 0.01 0.03 0.04 0.02 0.00 0.00 0.00 0.00 0.00 0.00 0.00 0.00 0.01 0.01 0.01 0.00 0.00 0.00 0.00 0.01 0.01 0.02 0.07 0.13 0.19 0.23 0.22 0.11 0.04 0.01 0.00 0.01 0.00 0.00 0.00 0.00 0.00
0.02 0.06 0.10 0.10 0.12 0.12 0.13 0.07 0.07 0.08 0.02 0.01 0.00 0.00 0.00 0.00 0.00 0.00 0.00 0.00 0.01 0.00 0.00 0.00 0.00 0.00 0.01 0.02 0.08 0.13 0.11 0.07 0.06 0.06 0.05 0.03 0.01 0.00 0.00 0.01 0.02 0.01 0.00 0.00